| time (UTC) | temp F | wind direction | speed MPH | gust MPH | rain 1hr in | rain 24hr in | rain mn in | humidity % | barometer mb |
| 20260502194410 | 70 | 309 | 9.0 | 17.0 | 0.00 | 0.00 | 0.00 | 36 | 1014.8 |
| 20260502194318 | 70 | 333 | 10.0 | 17.0 | 0.00 | 0.00 | 0.00 | 34 | 1014.7 |
| 20260502194210 | 70 | 350 | 12.0 | 17.0 | 0.00 | 0.00 | 0.00 | 34 | 1014.8 |
| 20260502194118 | 70 | 321 | 9.0 | 16.0 | 0.00 | 0.00 | 0.00 | 33 | 1014.7 |
| 20260502194025 | 70 | 347 | 7.0 | 16.0 | 0.00 | 0.00 | 0.00 | 33 | 1014.7 |
| 20260502193913 | 70 | 331 | 7.0 | 16.0 | 0.00 | 0.00 | 0.00 | 33 | 1014.7 |
| 20260502193821 | 70 | 324 | 8.0 | 16.0 | 0.00 | 0.00 | 0.00 | 35 | 1014.7 |
| 20260502193709 | 70 | 336 | 8.0 | 16.0 | 0.00 | 0.00 | 0.00 | 37 | 1014.9 |
| 20260502193621 | 70 | 323 | 7.0 | 17.0 | 0.00 | 0.00 | 0.00 | 36 | 1014.9 |
| 20260502193552 | 70 | 355 | 6.0 | 17.0 | 0.00 | 0.00 | 0.00 | 36 | 1014.8 |
| 20260502193325 | 70 | 360 | 6.0 | 17.0 | 0.00 | 0.00 | 0.00 | 36 | 1014.8 |
| 20260502193232 | 70 | 319 | 7.0 | 17.0 | 0.00 | 0.00 | 0.00 | 36 | 1014.8 |
| 20260502193119 | 70 | 355 | 9.0 | 17.0 | 0.00 | 0.00 | 0.00 | 36 | 1014.9 |
| 20260502193009 | 70 | 321 | 11.0 | 17.0 | 0.00 | 0.00 | 0.00 | 36 | 1014.9 |
| 20260502192918 | 70 | 13 | 12.0 | 17.0 | 0.00 | 0.00 | 0.00 | 35 | 1014.8 |
| 20260502192845 | 70 | 323 | 12.0 | 17.0 | 0.00 | 0.00 | 0.00 | 37 | 1014.8 |
| 20260502192710 | 70 | 16 | 10.0 | 16.0 | 0.00 | 0.00 | 0.00 | 36 | 1014.9 |
| 20260502192617 | 70 | 20 | 11.0 | 16.0 | 0.00 | 0.00 | 0.00 | 35 | 1014.9 |
| 20260502192509 | 70 | 340 | 11.0 | 16.0 | 0.00 | 0.00 | 0.00 | 35 | 1014.8 |
| 20260502192438 | 70 | 340 | 10.0 | 15.0 | 0.00 | 0.00 | 0.00 | 35 | 1014.9 |
| 20260502192324 | 70 | 325 | 8.0 | 15.0 | 0.00 | 0.00 | 0.00 | 35 | 1014.9 |
| 20260502192210 | 70 | 314 | 6.0 | 14.0 | 0.00 | 0.00 | 0.00 | 35 | 1015.0 |
| 20260502192137 | 70 | 325 | 7.0 | 14.0 | 0.00 | 0.00 | 0.00 | 35 | 1014.9 |
| 20260502192046 | 70 | 331 | 7.0 | 14.0 | 0.00 | 0.00 | 0.00 | 36 | 1014.9 |
| 20260502191823 | 70 | 333 | 8.0 | 14.0 | 0.00 | 0.00 | 0.00 | 36 | 1015.0 |
| 20260502191710 | 70 | 32 | 9.0 | 14.0 | 0.00 | 0.00 | 0.00 | 35 | 1015.0 |
| 20260502191618 | 70 | 300 | 9.0 | 14.0 | 0.00 | 0.00 | 0.00 | 36 | 1015.1 |
| 20260502191525 | 70 | 301 | 7.0 | 15.0 | 0.00 | 0.00 | 0.00 | 38 | 1015.1 |
| 20260502191433 | 70 | 306 | 6.0 | 15.0 | 0.00 | 0.00 | 0.00 | 38 | 1015.0 |
| 20260502191340 | 70 | 355 | 7.0 | 18.0 | 0.00 | 0.00 | 0.00 | 36 | 1015.0 |
| 20260502191247 | 70 | 344 | 8.0 | 18.0 | 0.00 | 0.00 | 0.00 | 36 | 1015.0 |
| 20260502191117 | 70 | 342 | 8.0 | 18.0 | 0.00 | 0.00 | 0.00 | 35 | 1015.0 |
| 20260502191045 | 70 | 360 | 9.0 | 18.0 | 0.00 | 0.00 | 0.00 | 34 | 1015.0 |
| 20260502190932 | 70 | 311 | 10.0 | 18.0 | 0.00 | 0.00 | 0.00 | 38 | 1015.0 |
| 20260502190819 | 70 | 355 | 10.0 | 18.0 | 0.00 | 0.00 | 0.00 | 37 | 1015.1 |
| 20260502190726 | 70 | 11 | 11.0 | 18.0 | 0.00 | 0.00 | 0.00 | 36 | 1015.1 |
| 20260502190633 | 70 | 329 | 11.0 | 18.0 | 0.00 | 0.00 | 0.00 | 35 | 1015.1 |
| 20260502190549 | 70 | 332 | 10.0 | 18.0 | 0.00 | 0.00 | 0.00 | 35 | 1015.1 |
| 20260502190323 | 70 | 348 | 10.0 | 18.0 | 0.00 | 0.00 | 0.00 | 36 | 1015.0 |
| 20260502190211 | 70 | 343 | 12.0 | 18.0 | 0.00 | 0.00 | 0.00 | 35 | 1015.1 |
| 20260502190117 | 71 | 331 | 11.0 | 18.0 | 0.00 | 0.00 | 0.00 | 36 | 1015.0 |
| 20260502190024 | 71 | 338 | 11.0 | 16.0 | 0.00 | 0.00 | 0.00 | 36 | 1015.0 |
| 20260502185935 | 71 | 355 | 10.0 | 16.0 | 0.00 | 0.00 | 0.00 | 36 | 1015.0 |
| 20260502185821 | 71 | 15 | 8.0 | 15.0 | 0.00 | 0.00 | 0.00 | 36 | 1015.0 |
| 20260502185749 | 71 | 53 | 8.0 | 15.0 | 0.00 | 0.00 | 0.00 | 38 | 1015.0 |
| 20260502185633 | 70 | 5 | 8.0 | 15.0 | 0.00 | 0.00 | 0.00 | 39 | 1015.0 |
| 20260502185540 | 70 | 315 | 7.0 | 15.0 | 0.00 | 0.00 | 0.00 | 39 | 1015.0 |
| 20260502185447 | 70 | 345 | 6.0 | 15.0 | 0.00 | 0.00 | 0.00 | 39 | 1015.1 |
| 20260502185313 | 70 | 355 | 7.0 | 15.0 | 0.00 | 0.00 | 0.00 | 38 | 1014.9 |
| 20260502185220 | 70 | 355 | 8.0 | 15.0 | 0.00 | 0.00 | 0.00 | 37 | 1014.9 |
| 20260502185152 | 70 | 344 | 8.0 | 15.0 | 0.00 | 0.00 | 0.00 | 37 | 1015.1 |
| 20260502185100 | 69 | 344 | 7.0 | 15.0 | 0.00 | 0.00 | 0.00 | 38 | 1015.2 |
| 20260502184813 | 69 | 333 | 8.0 | 15.0 | 0.00 | 0.00 | 0.00 | 38 | 1015.2 |
| 20260502184720 | 69 | 355 | 9.0 | 15.0 | 0.00 | 0.00 | 0.00 | 40 | 1015.2 |
| 20260502184613 | 69 | 355 | 7.0 | 15.0 | 0.00 | 0.00 | 0.00 | 40 | 1015.2 |
| 20260502184520 | 69 | 337 | 6.0 | 15.0 | 0.00 | 0.00 | 0.00 | 38 | 1015.2 |
| 20260502184427 | 69 | 302 | 6.0 | 15.0 | 0.00 | 0.00 | 0.00 | 38 | 1015.1 |
| 20260502184335 | 69 | 315 | 10.0 | 15.0 | 0.00 | 0.00 | 0.00 | 38 | 1015.2 |
| 20260502184223 | 69 | 337 | 11.0 | 15.0 | 0.00 | 0.00 | 0.00 | 37 | 1015.2 |
| 20260502184109 | 69 | 342 | 11.0 | 15.0 | 0.00 | 0.00 | 0.00 | 37 | 1015.3 |
| 20260502184020 | 69 | 306 | 11.0 | 15.0 | 0.00 | 0.00 | 0.00 | 35 | 1015.3 |
| 20260502183927 | 69 | 327 | 10.0 | 15.0 | 0.00 | 0.00 | 0.00 | 34 | 1015.1 |
| 20260502183814 | 69 | 310 | 10.0 | 15.0 | 0.00 | 0.00 | 0.00 | 36 | 1015.2 |
| 20260502183723 | 69 | 268 | 9.0 | 15.0 | 0.00 | 0.00 | 0.00 | 37 | 1015.2 |
| 20260502183609 | 69 | 345 | 8.0 | 12.0 | 0.00 | 0.00 | 0.00 | 37 | 1015.1 |
| 20260502183544 | 69 | 330 | 8.0 | 12.0 | 0.00 | 0.00 | 0.00 | 40 | 1015.1 |
| 20260502183317 | 69 | 321 | 8.0 | 12.0 | 0.00 | 0.00 | 0.00 | 38 | 1015.2 |
| 20260502183223 | 69 | 326 | 6.0 | 12.0 | 0.00 | 0.00 | 0.00 | 38 | 1015.2 |
| 20260502183132 | 69 | 347 | 4.0 | 12.0 | 0.00 | 0.00 | 0.00 | 40 | 1015.2 |
| 20260502183018 | 69 | 290 | 5.0 | 18.0 | 0.00 | 0.00 | 0.00 | 38 | 1015.2 |
| 20260502182818 | 69 | 329 | 8.0 | 18.0 | 0.00 | 0.00 | 0.00 | 36 | 1015.2 |
| 20260502182725 | 69 | 294 | 8.0 | 18.0 | 0.00 | 0.00 | 0.00 | 39 | 1015.2 |
| 20260502182611 | 68 | 318 | 6.0 | 18.0 | 0.00 | 0.00 | 0.00 | 39 | 1015.2 |
| 20260502182518 | 68 | 319 | 6.0 | 18.0 | 0.00 | 0.00 | 0.00 | 39 | 1015.3 |
| 20260502182425 | 68 | 341 | 7.0 | 18.0 | 0.00 | 0.00 | 0.00 | 40 | 1015.3 |
| 20260502182311 | 68 | 348 | 10.0 | 18.0 | 0.00 | 0.00 | 0.00 | 38 | 1015.3 |
| 20260502182223 | 68 | 360 | 10.0 | 18.0 | 0.00 | 0.00 | 0.00 | 39 | 1015.3 |
| 20260502182131 | 68 | 38 | 10.0 | 18.0 | 0.00 | 0.00 | 0.00 | 38 | 1015.2 |
| 20260502182101 | 68 | 344 | 9.0 | 15.0 | 0.00 | 0.00 | 0.00 | 39 | 1015.3 |
| 20260502181815 | 69 | 360 | 7.0 | 14.0 | 0.00 | 0.00 | 0.00 | 37 | 1015.1 |
| 20260502181727 | 69 | 23 | 6.0 | 15.0 | 0.00 | 0.00 | 0.00 | 37 | 1015.1 |
| 20260502181614 | 69 | 347 | 6.0 | 15.0 | 0.00 | 0.00 | 0.00 | 38 | 1015.2 |
| 20260502181543 | 69 | 347 | 7.0 | 15.0 | 0.00 | 0.00 | 0.00 | 38 | 1015.2 |
| 20260502181410 | 69 | 261 | 9.0 | 15.0 | 0.00 | 0.00 | 0.00 | 38 | 1015.2 |
| 20260502181317 | 69 | 338 | 10.0 | 15.0 | 0.00 | 0.00 | 0.00 | 37 | 1015.2 |
| 20260502181226 | 69 | 11 | 7.0 | 15.0 | 0.00 | 0.00 | 0.00 | 37 | 1015.2 |
| 20260502181118 | 69 | 360 | 5.0 | 15.0 | 0.00 | 0.00 | 0.00 | 38 | 1015.2 |
| 20260502181026 | 69 | 355 | 8.0 | 15.0 | 0.00 | 0.00 | 0.00 | 38 | 1015.2 |
| 20260502180915 | 69 | 18 | 9.0 | 15.0 | 0.00 | 0.00 | 0.00 | 34 | 1015.3 |
| 20260502180821 | 69 | 308 | 9.0 | 15.0 | 0.00 | 0.00 | 0.00 | 37 | 1015.3 |
| 20260502180728 | 69 | 329 | 9.0 | 15.0 | 0.00 | 0.00 | 0.00 | 38 | 1015.3 |
| 20260502180620 | 69 | 315 | 8.0 | 15.0 | 0.00 | 0.00 | 0.00 | 41 | 1015.3 |
| 20260502180551 | 69 | 344 | 7.0 | 15.0 | 0.00 | 0.00 | 0.00 | 38 | 1015.3 |
| 20260502180324 | 69 | 5 | 8.0 | 15.0 | 0.00 | 0.00 | 0.00 | 38 | 1015.3 |
| 20260502180211 | 69 | 347 | 11.0 | 15.0 | 0.00 | 0.00 | 0.00 | 39 | 1015.4 |
| 20260502180118 | 68 | 331 | 11.0 | 15.0 | 0.00 | 0.00 | 0.00 | 39 | 1015.3 |
| 20260502170313 | 68 | 336 | 9.0 | 17.0 | 0.00 | 0.00 | 0.00 | 38 | 1015.8 |
| 20260502170220 | 68 | 5 | 9.0 | 16.0 | 0.00 | 0.00 | 0.00 | 36 | 1015.8 |
| 20260502170112 | 68 | 11 | 10.0 | 16.0 | 0.00 | 0.00 | 0.00 | 38 | 1015.8 |
| 20260502164318 | 66 | 12 | 5.0 | 15.0 | 0.00 | 0.00 | 0.00 | 43 | 1016.1 |
| 20260502164226 | 66 | 32 | 6.0 | 15.0 | 0.00 | 0.00 | 0.00 | 43 | 1016.1 |
| 20260502164112 | 66 | 340 | 7.0 | 15.0 | 0.00 | 0.00 | 0.00 | 42 | 1016.0 |
| 20260502164021 | 66 | 5 | 7.0 | 15.0 | 0.00 | 0.00 | 0.00 | 42 | 1016.0 |
| 20260502163913 | 66 | 339 | 5.0 | 16.0 | 0.00 | 0.00 | 0.00 | 42 | 1016.0 |
| 20260502163821 | 66 | 5 | 4.0 | 16.0 | 0.00 | 0.00 | 0.00 | 42 | 1016.0 |
| 20260502163749 | 66 | 13 | 7.0 | 16.0 | 0.00 | 0.00 | 0.00 | 41 | 1016.0 |
| 20260502163615 | 66 | 15 | 9.0 | 16.0 | 0.00 | 0.00 | 0.00 | 42 | 1016.1 |
| 20260502163549 | 66 | 22 | 9.0 | 16.0 | 0.00 | 0.00 | 0.00 | 42 | 1016.1 |
| 20260502163323 | 66 | 24 | 10.0 | 16.0 | 0.00 | 0.00 | 0.00 | 42 | 1016.2 |
| 20260502163210 | 66 | 5 | 10.0 | 16.0 | 0.00 | 0.00 | 0.00 | 41 | 1016.1 |
| 20260502163116 | 66 | 351 | 9.0 | 16.0 | 0.00 | 0.00 | 0.00 | 41 | 1016.2 |
| 20260502163043 | 65 | 41 | 9.0 | 16.0 | 0.00 | 0.00 | 0.00 | 41 | 1016.2 |
| 20260502162910 | 65 | 14 | 11.0 | 15.0 | 0.00 | 0.00 | 0.00 | 41 | 1016.1 |
| 20260502162838 | 65 | 321 | 9.0 | 15.0 | 0.00 | 0.00 | 0.00 | 41 | 1016.2 |
| 20260502162727 | 65 | 351 | 7.0 | 14.0 | 0.00 | 0.00 | 0.00 | 41 | 1016.2 |
| 20260502162615 | 65 | 307 | 5.0 | 14.0 | 0.00 | 0.00 | 0.00 | 41 | 1016.3 |
| 20260502162522 | 65 | 340 | 7.0 | 14.0 | 0.00 | 0.00 | 0.00 | 41 | 1016.3 |
| 20260502162409 | 65 | 5 | 9.0 | 14.0 | 0.00 | 0.00 | 0.00 | 42 | 1016.3 |
| 20260502162317 | 65 | 27 | 9.0 | 16.0 | 0.00 | 0.00 | 0.00 | 42 | 1016.2 |
| 20260502162244 | 65 | 5 | 7.0 | 16.0 | 0.00 | 0.00 | 0.00 | 43 | 1016.2 |
| 20260502162135 | 65 | 342 | 8.0 | 16.0 | 0.00 | 0.00 | 0.00 | 43 | 1016.3 |
| 20260502162044 | 65 | 5 | 9.0 | 16.0 | 0.00 | 0.00 | 0.00 | 41 | 1016.3 |
| 20260502161817 | 65 | 11 | 11.0 | 16.0 | 0.00 | 0.00 | 0.00 | 41 | 1016.3 |
| 20260502161725 | 65 | 14 | 11.0 | 16.0 | 0.00 | 0.00 | 0.00 | 41 | 1016.3 |
| 20260502161617 | 65 | 342 | 10.0 | 16.0 | 0.00 | 0.00 | 0.00 | 41 | 1016.3 |
| 20260502161525 | 65 | 323 | 10.0 | 16.0 | 0.00 | 0.00 | 0.00 | 42 | 1016.3 |
| 20260502161412 | 65 | 5 | 9.0 | 16.0 | 0.00 | 0.00 | 0.00 | 42 | 1016.3 |
| 20260502161320 | 65 | 13 | 9.0 | 16.0 | 0.00 | 0.00 | 0.00 | 43 | 1016.3 |
| 20260502161228 | 65 | 5 | 9.0 | 16.0 | 0.00 | 0.00 | 0.00 | 43 | 1016.3 |
| 20260502161117 | 65 | 5 | 9.0 | 18.0 | 0.00 | 0.00 | 0.00 | 42 | 1016.4 |
| 20260502161008 | 65 | 351 | 9.0 | 18.0 | 0.00 | 0.00 | 0.00 | 42 | 1016.3 |
| 20260502160915 | 65 | 5 | 9.0 | 18.0 | 0.00 | 0.00 | 0.00 | 43 | 1016.4 |
| 20260502160823 | 65 | 9 | 9.0 | 18.0 | 0.00 | 0.00 | 0.00 | 43 | 1016.4 |
| 20260502160749 | 65 | 334 | 10.0 | 18.0 | 0.00 | 0.00 | 0.00 | 43 | 1016.3 |
| 20260502160614 | 65 | 32 | 11.0 | 18.0 | 0.00 | 0.00 | 0.00 | 41 | 1016.4 |
| 20260502160550 | 65 | 348 | 12.0 | 18.0 | 0.00 | 0.00 | 0.00 | 41 | 1016.4 |
| 20260502160323 | 65 | 348 | 12.0 | 18.0 | 0.00 | 0.00 | 0.00 | 43 | 1016.3 |
| 20260502160211 | 65 | 13 | 11.0 | 15.0 | 0.00 | 0.00 | 0.00 | 43 | 1016.4 |
| 20260502160119 | 65 | 19 | 10.0 | 15.0 | 0.00 | 0.00 | 0.00 | 43 | 1016.4 |
| 20260502152219 | 61 | 34 | 7.0 | 13.0 | 0.00 | 0.00 | 0.00 | 49 | 1016.2 |
| 20260502152126 | 61 | 30 | 8.0 | 13.0 | 0.00 | 0.00 | 0.00 | 49 | 1016.2 |
| 20260502152101 | 61 | 15 | 9.0 | 13.0 | 0.00 | 0.00 | 0.00 | 48 | 1016.2 |
| 20260502151815 | 61 | 30 | 9.0 | 13.0 | 0.00 | 0.00 | 0.00 | 49 | 1016.2 |
| 20260502151742 | 61 | 44 | 8.0 | 13.0 | 0.00 | 0.00 | 0.00 | 49 | 1016.2 |
| 20260502151628 | 61 | 42 | 7.0 | 13.0 | 0.00 | 0.00 | 0.00 | 50 | 1016.1 |
| 20260502151516 | 61 | 38 | 7.0 | 13.0 | 0.00 | 0.00 | 0.00 | 50 | 1016.1 |
| 20260502151427 | 61 | 12 | 7.0 | 13.0 | 0.00 | 0.00 | 0.00 | 50 | 1016.1 |
| 20260502151314 | 61 | 18 | 8.0 | 13.0 | 0.00 | 0.00 | 0.00 | 50 | 1016.1 |
| 20260502151221 | 60 | 24 | 9.0 | 13.0 | 0.00 | 0.00 | 0.00 | 50 | 1016.1 |
| 20260502151110 | 60 | 40 | 10.0 | 13.0 | 0.00 | 0.00 | 0.00 | 50 | 1016.2 |
| 20260502151017 | 60 | 15 | 9.0 | 13.0 | 0.00 | 0.00 | 0.00 | 50 | 1016.0 |
| 20260502150910 | 60 | 12 | 9.0 | 15.0 | 0.00 | 0.00 | 0.00 | 51 | 1016.1 |
| 20260502150819 | 60 | 36 | 8.0 | 15.0 | 0.00 | 0.00 | 0.00 | 50 | 1016.1 |
| 20260502150726 | 60 | 38 | 8.0 | 15.0 | 0.00 | 0.00 | 0.00 | 49 | 1016.1 |
| 20260502150613 | 60 | 30 | 7.0 | 15.0 | 0.00 | 0.00 | 0.00 | 49 | 1016.1 |
| 20260502150544 | 60 | 17 | 7.0 | 15.0 | 0.00 | 0.00 | 0.00 | 50 | 1016.1 |
| 20260502150322 | 60 | 11 | 8.0 | 16.0 | 0.00 | 0.00 | 0.00 | 49 | 1016.0 |
| 20260502150210 | 60 | 360 | 10.0 | 16.0 | 0.00 | 0.00 | 0.00 | 49 | 1016.0 |
| 20260502150116 | 60 | 49 | 10.0 | 16.0 | 0.00 | 0.00 | 0.00 | 49 | 1016.0 |
| 20260502130721 | 55 | 16 | 6.0 | 12.0 | 0.00 | 0.00 | 0.00 | 64 | 1015.4 |
| 20260502130630 | 55 | 360 | 4.0 | 10.0 | 0.00 | 0.00 | 0.00 | 64 | 1015.4 |
| 20260502130559 | 55 | 29 | 4.0 | 10.0 | 0.00 | 0.00 | 0.00 | 64 | 1015.4 |
| 20260502130313 | 55 | 54 | 6.0 | 10.0 | 0.00 | 0.00 | 0.00 | 64 | 1015.3 |
| 20260502130224 | 55 | 348 | 7.0 | 10.0 | 0.00 | 0.00 | 0.00 | 65 | 1015.3 |
| 20260502130132 | 55 | 346 | 6.0 | 10.0 | 0.00 | 0.00 | 0.00 | 65 | 1015.3 |
| 20260502123727 | 53 | 23 | 4.0 | 10.0 | 0.00 | 0.00 | 0.00 | 68 | 1015.5 |
| 20260502123614 | 53 | 29 | 3.0 | 10.0 | 0.00 | 0.00 | 0.00 | 68 | 1015.4 |
| 20260502123550 | 52 | 5 | 3.0 | 10.0 | 0.00 | 0.00 | 0.00 | 68 | 1015.4 |
| 20260502123323 | 52 | 360 | 5.0 | 10.0 | 0.00 | 0.00 | 0.00 | 68 | 1015.4 |
| 20260502123230 | 52 | 5 | 6.0 | 10.0 | 0.00 | 0.00 | 0.00 | 68 | 1015.3 |
| 20260502123117 | 52 | 343 | 6.0 | 10.0 | 0.00 | 0.00 | 0.00 | 68 | 1015.3 |
| 20260502123043 | 52 | 355 | 6.0 | 10.0 | 0.00 | 0.00 | 0.00 | 69 | 1015.3 |
| 20260502122949 | 52 | 5 | 7.0 | 10.0 | 0.00 | 0.00 | 0.00 | 69 | 1015.3 |
| 20260502122835 | 52 | 336 | 6.0 | 10.0 | 0.00 | 0.00 | 0.00 | 69 | 1015.3 |
| 20260502122721 | 52 | 10 | 5.0 | 10.0 | 0.00 | 0.00 | 0.00 | 69 | 1015.3 |
| 20260502122632 | 52 | 28 | 5.0 | 10.0 | 0.00 | 0.00 | 0.00 | 69 | 1015.2 |
| 20260502122518 | 52 | 360 | 5.0 | 10.0 | 0.00 | 0.00 | 0.00 | 70 | 1015.2 |
| 20260502122426 | 52 | 13 | 7.0 | 10.0 | 0.00 | 0.00 | 0.00 | 70 | 1015.2 |
| 20260502122312 | 51 | 355 | 6.0 | 10.0 | 0.00 | 0.00 | 0.00 | 70 | 1015.2 |
| 20260502122240 | 51 | 355 | 6.0 | 10.0 | 0.00 | 0.00 | 0.00 | 71 | 1015.2 |
| 20260502122208 | 51 | 5 | 5.0 | 9.0 | 0.00 | 0.00 | 0.00 | 71 | 1015.3 |
| 20260502122121 | 51 | 40 | 5.0 | 9.0 | 0.00 | 0.00 | 0.00 | 71 | 1015.3 |
| 20260502121814 | 51 | 30 | 4.0 | 8.0 | 0.00 | 0.00 | 0.00 | 72 | 1015.3 |
| 20260502121721 | 51 | 360 | 4.0 | 8.0 | 0.00 | 0.00 | 0.00 | 72 | 1015.3 |
| 20260502121608 | 51 | 13 | 4.0 | 8.0 | 0.00 | 0.00 | 0.00 | 72 | 1015.3 |
| 20260502121516 | 50 | 5 | 3.0 | 8.0 | 0.00 | 0.00 | 0.00 | 72 | 1015.3 |
| 20260502121427 | 50 | 330 | 3.0 | 8.0 | 0.00 | 0.00 | 0.00 | 72 | 1015.3 |
| 20260502121315 | 50 | 360 | 4.0 | 8.0 | 0.00 | 0.00 | 0.00 | 72 | 1015.2 |
| 20260502121223 | 50 | 355 | 5.0 | 8.0 | 0.00 | 0.00 | 0.00 | 72 | 1015.2 |
| 20260502121131 | 50 | 355 | 4.0 | 8.0 | 0.00 | 0.00 | 0.00 | 71 | 1015.1 |
| 20260502121018 | 50 | 340 | 4.0 | 8.0 | 0.00 | 0.00 | 0.00 | 71 | 1015.1 |
| 20260502120909 | 50 | 22 | 3.0 | 8.0 | 0.00 | 0.00 | 0.00 | 71 | 1015.0 |
| 20260502120816 | 50 | 342 | 4.0 | 8.0 | 0.00 | 0.00 | 0.00 | 71 | 1015.0 |
| 20260502120743 | 50 | 5 | 4.0 | 8.0 | 0.00 | 0.00 | 0.00 | 71 | 1015.0 |
| 20260502120631 | 50 | 11 | 4.0 | 8.0 | 0.00 | 0.00 | 0.00 | 71 | 1014.9 |
| 20260502120602 | 50 | 329 | 3.0 | 5.0 | 0.00 | 0.00 | 0.00 | 71 | 1015.0 |
| 20260502120335 | 50 | 348 | 3.0 | 5.0 | 0.00 | 0.00 | 0.00 | 71 | 1014.8 |
| 20260502120226 | 50 | 360 | 3.0 | 5.0 | 0.00 | 0.00 | 0.00 | 71 | 1014.8 |
| 20260502120113 | 50 | 9 | 3.0 | 5.0 | 0.00 | 0.00 | 0.00 | 71 | 1014.8 |
| 20260502115815 | 50 | 355 | 3.0 | 5.0 | 0.00 | 0.00 | 0.00 | 71 | 1014.8 |
| 20260502115722 | 50 | 19 | 3.0 | 5.0 | 0.00 | 0.00 | 0.00 | 70 | 1014.8 |
| 20260502115635 | 50 | 348 | 3.0 | 5.0 | 0.00 | 0.00 | 0.00 | 70 | 1014.8 |
| 20260502115522 | 50 | 15 | 3.0 | 5.0 | 0.00 | 0.00 | 0.00 | 70 | 1014.8 |
| 20260502115408 | 50 | 360 | 3.0 | 5.0 | 0.00 | 0.00 | 0.00 | 70 | 1014.7 |
| 20260502115316 | 50 | 17 | 3.0 | 6.0 | 0.00 | 0.00 | 0.00 | 70 | 1014.8 |
| 20260502115245 | 50 | 9 | 3.0 | 6.0 | 0.00 | 0.00 | 0.00 | 70 | 1014.8 |
| 20260502115131 | 50 | 5 | 3.0 | 6.0 | 0.00 | 0.00 | 0.00 | 70 | 1014.8 |
| 20260502115105 | 50 | 24 | 3.0 | 6.0 | 0.00 | 0.00 | 0.00 | 70 | 1014.8 |
| 20260502114817 | 50 | 360 | 3.0 | 6.0 | 0.00 | 0.00 | 0.00 | 70 | 1014.8 |
| 20260502114744 | 50 | 18 | 3.0 | 6.0 | 0.00 | 0.00 | 0.00 | 70 | 1014.8 |
| 20260502114519 | 50 | 360 | 5.0 | 8.0 | 0.00 | 0.00 | 0.00 | 70 | 1014.8 |
| 20260502114410 | 50 | 15 | 4.0 | 8.0 | 0.00 | 0.00 | 0.00 | 70 | 1014.8 |
| 20260502114228 | 50 | 17 | 4.0 | 8.0 | 0.00 | 0.00 | 0.00 | 70 | 1014.8 |
| 20260502114135 | 50 | 355 | 3.0 | 8.0 | 0.00 | 0.00 | 0.00 | 70 | 1014.7 |
| 20260502114021 | 50 | 346 | 3.0 | 8.0 | 0.00 | 0.00 | 0.00 | 69 | 1014.7 |
| 20260502113930 | 50 | 338 | 4.0 | 8.0 | 0.00 | 0.00 | 0.00 | 69 | 1014.7 |
| 20260502113821 | 50 | 28 | 4.0 | 8.0 | 0.00 | 0.00 | 0.00 | 69 | 1014.7 |
| 20260502113708 | 50 | 11 | 5.0 | 8.0 | 0.00 | 0.00 | 0.00 | 69 | 1014.8 |
| 20260502113617 | 50 | 5 | 4.0 | 6.0 | 0.00 | 0.00 | 0.00 | 69 | 1014.7 |
| 20260502113548 | 50 | 355 | 4.0 | 6.0 | 0.00 | 0.00 | 0.00 | 69 | 1014.7 |
| 20260502113340 | 50 | 19 | 4.0 | 6.0 | 0.00 | 0.00 | 0.00 | 69 | 1014.6 |
| 20260502113210 | 50 | 333 | 3.0 | 5.0 | 0.00 | 0.00 | 0.00 | 69 | 1014.6 |
| 20260502113118 | 50 | 13 | 3.0 | 5.0 | 0.00 | 0.00 | 0.00 | 69 | 1014.6 |
| 20260502113026 | 50 | 30 | 3.0 | 5.0 | 0.00 | 0.00 | 0.00 | 69 | 1014.6 |
| 20260502112913 | 50 | 12 | 3.0 | 5.0 | 0.00 | 0.00 | 0.00 | 69 | 1014.5 |
| 20260502112840 | 50 | 15 | 3.0 | 5.0 | 0.00 | 0.00 | 0.00 | 69 | 1014.5 |
| 20260502112727 | 50 | 14 | 3.0 | 5.0 | 0.00 | 0.00 | 0.00 | 69 | 1014.6 |
| 20260502112617 | 50 | 5 | 4.0 | 5.0 | 0.00 | 0.00 | 0.00 | 69 | 1014.6 |
| 20260502112525 | 50 | 28 | 3.0 | 4.0 | 0.00 | 0.00 | 0.00 | 69 | 1014.6 |
| 20260502112412 | 50 | 325 | 2.0 | 4.0 | 0.00 | 0.00 | 0.00 | 69 | 1014.6 |
| 20260502112320 | 50 | 331 | 2.0 | 5.0 | 0.00 | 0.00 | 0.00 | 69 | 1014.6 |
| 20260502112227 | 50 | 349 | 2.0 | 5.0 | 0.00 | 0.00 | 0.00 | 69 | 1014.6 |
| 20260502112136 | 50 | 351 | 3.0 | 5.0 | 0.00 | 0.00 | 0.00 | 69 | 1014.6 |
| 20260502112110 | 50 | 355 | 3.0 | 5.0 | 0.00 | 0.00 | 0.00 | 69 | 1014.7 |
| 20260502111823 | 50 | 360 | 3.0 | 5.0 | 0.00 | 0.00 | 0.00 | 68 | 1014.6 |
| 20260502111731 | 50 | 339 | 3.0 | 5.0 | 0.00 | 0.00 | 0.00 | 68 | 1014.5 |
| 20260502111638 | 50 | 5 | 3.0 | 5.0 | 0.00 | 0.00 | 0.00 | 68 | 1014.5 |
| 20260502111524 | 50 | 22 | 3.0 | 5.0 | 0.00 | 0.00 | 0.00 | 68 | 1014.5 |
| 20260502111417 | 50 | 5 | 3.0 | 4.0 | 0.00 | 0.00 | 0.00 | 68 | 1014.4 |
| 20260502111325 | 51 | 17 | 3.0 | 4.0 | 0.00 | 0.00 | 0.00 | 68 | 1014.4 |
| 20260502111212 | 51 | 28 | 3.0 | 4.0 | 0.00 | 0.00 | 0.00 | 68 | 1014.4 |
| 20260502111120 | 50 | 346 | 3.0 | 4.0 | 0.00 | 0.00 | 0.00 | 68 | 1014.4 |
| 20260502111008 | 51 | 13 | 2.0 | 4.0 | 0.00 | 0.00 | 0.00 | 68 | 1014.4 |
| 20260502110919 | 51 | 343 | 2.0 | 4.0 | 0.00 | 0.00 | 0.00 | 68 | 1014.4 |
| 20260502110827 | 51 | 42 | 3.0 | 4.0 | 0.00 | 0.00 | 0.00 | 68 | 1014.4 |
| 20260502110713 | 51 | 5 | 3.0 | 6.0 | 0.00 | 0.00 | 0.00 | 68 | 1014.4 |
| 20260502110621 | 51 | 30 | 3.0 | 6.0 | 0.00 | 0.00 | 0.00 | 68 | 1014.4 |
| 20260502110552 | 51 | 17 | 3.0 | 6.0 | 0.00 | 0.00 | 0.00 | 68 | 1014.3 |
| 20260502110329 | 51 | 5 | 3.0 | 6.0 | 0.00 | 0.00 | 0.00 | 68 | 1014.4 |
| 20260502110233 | 51 | 5 | 3.0 | 6.0 | 0.00 | 0.00 | 0.00 | 68 | 1014.2 |
| 20260502110119 | 51 | 360 | 3.0 | 6.0 | 0.00 | 0.00 | 0.00 | 68 | 1014.2 |
| 20260502110026 | 51 | 337 | 3.0 | 6.0 | 0.00 | 0.00 | 0.00 | 67 | 1014.2 |
| 20260502105914 | 51 | 11 | 3.0 | 6.0 | 0.00 | 0.00 | 0.00 | 67 | 1014.3 |
| 20260502105821 | 51 | 34 | 3.0 | 5.0 | 0.00 | 0.00 | 0.00 | 67 | 1014.3 |
| 20260502105713 | 51 | 349 | 3.0 | 6.0 | 0.00 | 0.00 | 0.00 | 67 | 1014.3 |
| 20260502105621 | 51 | 11 | 3.0 | 6.0 | 0.00 | 0.00 | 0.00 | 67 | 1014.3 |
| 20260502105527 | 51 | 20 | 3.0 | 6.0 | 0.00 | 0.00 | 0.00 | 67 | 1014.2 |
| 20260502105413 | 51 | 5 | 3.0 | 6.0 | 0.00 | 0.00 | 0.00 | 67 | 1014.2 |
| 20260502105321 | 51 | 348 | 2.0 | 6.0 | 0.00 | 0.00 | 0.00 | 67 | 1014.2 |
| 20260502105213 | 51 | 355 | 3.0 | 6.0 | 0.00 | 0.00 | 0.00 | 67 | 1014.0 |
| 20260502105140 | 51 | 334 | 3.0 | 6.0 | 0.00 | 0.00 | 0.00 | 67 | 1014.0 |
| 20260502105111 | 51 | 343 | 4.0 | 6.0 | 0.00 | 0.00 | 0.00 | 67 | 1014.0 |
| 20260502104823 | 51 | 9 | 4.0 | 7.0 | 0.00 | 0.00 | 0.00 | 67 | 1014.0 |
| 20260502104712 | 51 | 323 | 3.0 | 6.0 | 0.00 | 0.00 | 0.00 | 67 | 1014.0 |
| 20260502104624 | 51 | 355 | 2.0 | 6.0 | 0.00 | 0.00 | 0.00 | 67 | 1014.0 |
| 20260502104512 | 51 | 335 | 3.0 | 6.0 | 0.00 | 0.00 | 0.00 | 67 | 1014.0 |
| 20260502104419 | 51 | 355 | 4.0 | 6.0 | 0.00 | 0.00 | 0.00 | 67 | 1014.0 |
| 20260502104325 | 51 | 360 | 4.0 | 6.0 | 0.00 | 0.00 | 0.00 | 67 | 1014.0 |
| 20260502104213 | 51 | 313 | 4.0 | 6.0 | 0.00 | 0.00 | 0.00 | 66 | 1013.9 |
| 20260502104120 | 51 | 355 | 3.0 | 5.0 | 0.00 | 0.00 | 0.00 | 67 | 1013.9 |
| 20260502104011 | 51 | 350 | 3.0 | 5.0 | 0.00 | 0.00 | 0.00 | 66 | 1013.9 |
| 20260502103919 | 51 | 336 | 3.0 | 5.0 | 0.00 | 0.00 | 0.00 | 66 | 1013.9 |
| 20260502103827 | 51 | 355 | 3.0 | 5.0 | 0.00 | 0.00 | 0.00 | 66 | 1013.9 |
| 20260502103736 | 51 | 355 | 3.0 | 5.0 | 0.00 | 0.00 | 0.00 | 66 | 1013.9 |
| 20260502103622 | 51 | 344 | 3.0 | 5.0 | 0.00 | 0.00 | 0.00 | 66 | 1013.9 |
| 20260502103557 | 51 | 346 | 3.0 | 4.0 | 0.00 | 0.00 | 0.00 | 66 | 1013.8 |
| 20260502103310 | 51 | 5 | 3.0 | 4.0 | 0.00 | 0.00 | 0.00 | 65 | 1013.8 |
| 20260502103217 | 51 | 348 | 3.0 | 4.0 | 0.00 | 0.00 | 0.00 | 65 | 1013.8 |
| 20260502103125 | 51 | 340 | 2.0 | 4.0 | 0.00 | 0.00 | 0.00 | 65 | 1013.8 |
| 20260502103013 | 51 | 5 | 2.0 | 4.0 | 0.00 | 0.00 | 0.00 | 65 | 1014.0 |
| 20260502102924 | 51 | 19 | 2.0 | 4.0 | 0.00 | 0.00 | 0.00 | 65 | 1014.0 |
| 20260502102811 | 51 | 355 | 2.0 | 4.0 | 0.00 | 0.00 | 0.00 | 65 | 1013.9 |
| 20260502102718 | 51 | 5 | 2.0 | 4.0 | 0.00 | 0.00 | 0.00 | 65 | 1013.9 |
| 20260502102626 | 51 | 360 | 2.0 | 4.0 | 0.00 | 0.00 | 0.00 | 65 | 1013.9 |
| 20260502102512 | 51 | 355 | 2.0 | 4.0 | 0.00 | 0.00 | 0.00 | 65 | 1013.9 |
| 20260502102439 | 52 | 5 | 1.0 | 4.0 | 0.00 | 0.00 | 0.00 | 65 | 1013.9 |
| 20260502102330 | 52 | 9 | 2.0 | 5.0 | 0.00 | 0.00 | 0.00 | 64 | 1013.9 |
| 20260502102237 | 52 | 5 | 2.0 | 5.0 | 0.00 | 0.00 | 0.00 | 65 | 1013.8 |
| 20260502102123 | 52 | 5 | 2.0 | 5.0 | 0.00 | 0.00 | 0.00 | 64 | 1013.8 |
| 20260502102053 | 52 | 9 | 2.0 | 5.0 | 0.00 | 0.00 | 0.00 | 64 | 1013.9 |
| 20260502101719 | 52 | 336 | 3.0 | 6.0 | 0.00 | 0.00 | 0.00 | 64 | 1013.9 |
| 20260502101627 | 52 | 9 | 3.0 | 6.0 | 0.00 | 0.00 | 0.00 | 64 | 1013.8 |
| 20260502101515 | 52 | 355 | 3.0 | 6.0 | 0.00 | 0.00 | 0.00 | 64 | 1013.9 |
| 20260502101423 | 52 | 355 | 3.0 | 8.0 | 0.00 | 0.00 | 0.00 | 64 | 1013.9 |
| 20260502101309 | 52 | 327 | 2.0 | 8.0 | 0.00 | 0.00 | 0.00 | 64 | 1014.0 |
| 20260502101220 | 52 | 347 | 3.0 | 8.0 | 0.00 | 0.00 | 0.00 | 64 | 1014.0 |
| 20260502101129 | 52 | 13 | 4.0 | 8.0 | 0.00 | 0.00 | 0.00 | 64 | 1013.8 |
| 20260502101016 | 52 | 355 | 4.0 | 8.0 | 0.00 | 0.00 | 0.00 | 64 | 1013.9 |
| 20260502100924 | 52 | 355 | 4.0 | 8.0 | 0.00 | 0.00 | 0.00 | 64 | 1013.9 |
| 20260502100812 | 52 | 9 | 3.0 | 10.0 | 0.00 | 0.00 | 0.00 | 63 | 1013.7 |
| 20260502100719 | 52 | 344 | 4.0 | 10.0 | 0.00 | 0.00 | 0.00 | 63 | 1013.7 |
| 20260502100631 | 52 | 355 | 4.0 | 10.0 | 0.00 | 0.00 | 0.00 | 63 | 1013.7 |
| 20260502100602 | 52 | 22 | 5.0 | 10.0 | 0.00 | 0.00 | 0.00 | 63 | 1013.8 |
| 20260502100337 | 52 | 360 | 5.0 | 10.0 | 0.00 | 0.00 | 0.00 | 63 | 1013.7 |
| 20260502100223 | 52 | 5 | 5.0 | 10.0 | 0.00 | 0.00 | 0.00 | 63 | 1013.7 |
| 20260502100110 | 52 | 5 | 6.0 | 10.0 | 0.00 | 0.00 | 0.00 | 63 | 1013.6 |
| 20260502091534 | 53 | 5 | 5.0 | 10.0 | 0.00 | 0.00 | 0.00 | 60 | 1013.7 |
| 20260502091420 | 53 | 360 | 6.0 | 10.0 | 0.00 | 0.00 | 0.00 | 60 | 1013.7 |
| 20260502091325 | 53 | 360 | 6.0 | 10.0 | 0.00 | 0.00 | 0.00 | 60 | 1013.6 |
| 20260502091212 | 53 | 14 | 6.0 | 10.0 | 0.00 | 0.00 | 0.00 | 60 | 1013.7 |
| 20260502091121 | 53 | 331 | 5.0 | 10.0 | 0.00 | 0.00 | 0.00 | 60 | 1013.7 |
| 20260502091028 | 53 | 5 | 5.0 | 10.0 | 0.00 | 0.00 | 0.00 | 60 | 1013.6 |
| 20260502090919 | 53 | 360 | 5.0 | 10.0 | 0.00 | 0.00 | 0.00 | 60 | 1013.6 |
| 20260502090827 | 53 | 5 | 6.0 | 10.0 | 0.00 | 0.00 | 0.00 | 60 | 1013.6 |
| 20260502090713 | 53 | 5 | 7.0 | 10.0 | 0.00 | 0.00 | 0.00 | 60 | 1013.6 |
| 20260502090641 | 53 | 5 | 7.0 | 10.0 | 0.00 | 0.00 | 0.00 | 59 | 1013.6 |
| 20260502090552 | 53 | 15 | 7.0 | 10.0 | 0.00 | 0.00 | 0.00 | 60 | 1013.6 |
| 20260502090310 | 53 | 17 | 4.0 | 9.0 | 0.00 | 0.00 | 0.00 | 59 | 1013.6 |
| 20260502090237 | 53 | 5 | 5.0 | 9.0 | 0.00 | 0.00 | 0.00 | 59 | 1013.6 |
| 20260502090124 | 53 | 17 | 6.0 | 9.0 | 0.00 | 0.00 | 0.00 | 59 | 1013.6 |
| 20260502071529 | 55 | 30 | 7.0 | 13.0 | 0.00 | 0.00 | 0.00 | 56 | 1014.2 |
| 20260502071415 | 55 | 11 | 6.0 | 13.0 | 0.00 | 0.00 | 0.00 | 57 | 1014.1 |
| 20260502071343 | 55 | 347 | 6.0 | 13.0 | 0.00 | 0.00 | 0.00 | 57 | 1014.1 |
| 20260502071208 | 55 | 5 | 8.0 | 13.0 | 0.00 | 0.00 | 0.00 | 56 | 1014.0 |
| 20260502071120 | 55 | 13 | 8.0 | 13.0 | 0.00 | 0.00 | 0.00 | 56 | 1014.0 |
| 20260502071028 | 55 | 34 | 9.0 | 13.0 | 0.00 | 0.00 | 0.00 | 56 | 1014.1 |
| 20260502070915 | 55 | 21 | 8.0 | 13.0 | 0.00 | 0.00 | 0.00 | 56 | 1014.1 |
| 20260502070820 | 55 | 360 | 7.0 | 13.0 | 0.00 | 0.00 | 0.00 | 56 | 1014.1 |
| 20260502070749 | 55 | 26 | 7.0 | 14.0 | 0.00 | 0.00 | 0.00 | 56 | 1014.0 |
| 20260502070614 | 55 | 43 | 8.0 | 14.0 | 0.00 | 0.00 | 0.00 | 56 | 1014.3 |
| 20260502070548 | 55 | 25 | 8.0 | 14.0 | 0.00 | 0.00 | 0.00 | 56 | 1014.3 |
| 20260502070321 | 55 | 36 | 9.0 | 14.0 | 0.00 | 0.00 | 0.00 | 56 | 1014.5 |
| 20260502070208 | 55 | 349 | 8.0 | 14.0 | 0.00 | 0.00 | 0.00 | 56 | 1014.7 |
| 20260502070116 | 55 | 19 | 8.0 | 14.0 | 0.00 | 0.00 | 0.00 | 56 | 1014.8 |
| 20260502070008 | 55 | 38 | 9.0 | 14.0 | 0.00 | 0.00 | 0.00 | 56 | 1014.7 |
| 20260502065917 | 55 | 27 | 9.0 | 14.0 | 0.00 | 0.00 | 0.00 | 56 | 1014.8 |
| 20260502065845 | 55 | 350 | 8.0 | 14.0 | 0.00 | 0.00 | 0.00 | 57 | 1014.8 |
| 20260502065731 | 55 | 11 | 6.0 | 14.0 | 0.00 | 0.00 | 0.00 | 56 | 1014.8 |
| 20260502065619 | 55 | 338 | 6.0 | 14.0 | 0.00 | 0.00 | 0.00 | 56 | 1014.8 |
| 20260502065527 | 55 | 13 | 8.0 | 14.0 | 0.00 | 0.00 | 0.00 | 56 | 1014.7 |
| 20260502065415 | 55 | 28 | 7.0 | 14.0 | 0.00 | 0.00 | 0.00 | 57 | 1014.5 |
| 20260502065347 | 55 | 22 | 5.0 | 14.0 | 0.00 | 0.00 | 0.00 | 56 | 1014.5 |
| 20260502065233 | 55 | 9 | 7.0 | 13.0 | 0.00 | 0.00 | 0.00 | 56 | 1014.5 |
| 20260502065120 | 55 | 334 | 8.0 | 13.0 | 0.00 | 0.00 | 0.00 | 56 | 1014.5 |
| 20260502065050 | 55 | 9 | 9.0 | 13.0 | 0.00 | 0.00 | 0.00 | 56 | 1014.4 |
| 20260502064825 | 55 | 34 | 8.0 | 13.0 | 0.00 | 0.00 | 0.00 | 56 | 1014.5 |
| 20260502064717 | 55 | 30 | 9.0 | 13.0 | 0.00 | 0.00 | 0.00 | 56 | 1014.5 |
| 20260502064623 | 55 | 360 | 8.0 | 13.0 | 0.00 | 0.00 | 0.00 | 56 | 1014.5 |
| 20260502064509 | 55 | 11 | 8.0 | 13.0 | 0.00 | 0.00 | 0.00 | 56 | 1014.5 |
| 20260502064417 | 55 | 20 | 8.0 | 13.0 | 0.00 | 0.00 | 0.00 | 56 | 1014.6 |
| 20260502064325 | 55 | 5 | 8.0 | 13.0 | 0.00 | 0.00 | 0.00 | 56 | 1014.6 |
| 20260502064233 | 55 | 32 | 9.0 | 13.0 | 0.00 | 0.00 | 0.00 | 55 | 1014.6 |
| 20260502064123 | 55 | 12 | 8.0 | 13.0 | 0.00 | 0.00 | 0.00 | 56 | 1014.6 |
| 20260502064008 | 55 | 38 | 7.0 | 13.0 | 0.00 | 0.00 | 0.00 | 56 | 1014.7 |
| 20260502063917 | 55 | 15 | 6.0 | 12.0 | 0.00 | 0.00 | 0.00 | 56 | 1014.6 |
| 20260502063823 | 55 | 18 | 6.0 | 12.0 | 0.00 | 0.00 | 0.00 | 56 | 1014.6 |
| 20260502063711 | 55 | 38 | 7.0 | 13.0 | 0.00 | 0.00 | 0.00 | 56 | 1014.7 |
| 20260502063619 | 55 | 355 | 7.0 | 13.0 | 0.00 | 0.00 | 0.00 | 56 | 1014.7 |
| 20260502063554 | 55 | 19 | 8.0 | 13.0 | 0.00 | 0.00 | 0.00 | 55 | 1014.6 |
| 20260502063347 | 55 | 27 | 9.0 | 13.0 | 0.00 | 0.00 | 0.00 | 56 | 1014.7 |
| 20260502063214 | 55 | 14 | 8.0 | 13.0 | 0.00 | 0.00 | 0.00 | 55 | 1014.6 |
| 20260502063123 | 55 | 360 | 7.0 | 13.0 | 0.00 | 0.00 | 0.00 | 55 | 1014.6 |
| 20260502063014 | 55 | 5 | 8.0 | 13.0 | 0.00 | 0.00 | 0.00 | 55 | 1014.5 |
| 20260502062920 | 55 | 25 | 9.0 | 13.0 | 0.00 | 0.00 | 0.00 | 55 | 1014.5 |
| 20260502062826 | 55 | 31 | 8.0 | 13.0 | 0.00 | 0.00 | 0.00 | 55 | 1014.6 |
| 20260502062734 | 55 | 340 | 8.0 | 13.0 | 0.00 | 0.00 | 0.00 | 55 | 1014.6 |
| 20260502062640 | 56 | 5 | 8.0 | 14.0 | 0.00 | 0.00 | 0.00 | 56 | 1014.6 |
| 20260502062528 | 56 | 12 | 8.0 | 14.0 | 0.00 | 0.00 | 0.00 | 55 | 1014.7 |
| 20260502062415 | 55 | 5 | 7.0 | 14.0 | 0.00 | 0.00 | 0.00 | 55 | 1014.6 |
| 20260502062328 | 56 | 360 | 8.0 | 14.0 | 0.00 | 0.00 | 0.00 | 55 | 1014.6 |
| 20260502062215 | 56 | 24 | 9.0 | 14.0 | 0.00 | 0.00 | 0.00 | 55 | 1014.6 |
| 20260502062142 | 56 | 38 | 10.0 | 14.0 | 0.00 | 0.00 | 0.00 | 55 | 1014.6 |
| 20260502062052 | 56 | 32 | 10.0 | 14.0 | 0.00 | 0.00 | 0.00 | 55 | 1014.6 |
| 20260502061826 | 56 | 26 | 9.0 | 14.0 | 0.00 | 0.00 | 0.00 | 55 | 1014.8 |
| 20260502061717 | 56 | 346 | 7.0 | 13.0 | 0.00 | 0.00 | 0.00 | 55 | 1014.9 |
| 20260502061418 | 56 | 17 | 9.0 | 13.0 | 0.00 | 0.00 | 0.00 | 55 | 1015.0 |
| 20260502061345 | 56 | 360 | 9.0 | 13.0 | 0.00 | 0.00 | 0.00 | 54 | 1015.0 |
| 20260502061212 | 56 | 355 | 7.0 | 13.0 | 0.00 | 0.00 | 0.00 | 54 | 1015.0 |
| 20260502061140 | 56 | 38 | 6.0 | 13.0 | 0.00 | 0.00 | 0.00 | 55 | 1015.0 |
| 20260502061009 | 56 | 32 | 6.0 | 14.0 | 0.00 | 0.00 | 0.00 | 54 | 1015.0 |
| 20260502060916 | 56 | 13 | 7.0 | 14.0 | 0.00 | 0.00 | 0.00 | 54 | 1015.0 |
| 20260502060823 | 56 | 9 | 7.0 | 14.0 | 0.00 | 0.00 | 0.00 | 54 | 1015.0 |
| 20260502060712 | 56 | 355 | 8.0 | 14.0 | 0.00 | 0.00 | 0.00 | 54 | 1014.9 |
| 20260502060619 | 56 | 11 | 9.0 | 14.0 | 0.00 | 0.00 | 0.00 | 54 | 1014.9 |
| 20260502060553 | 56 | 355 | 10.0 | 14.0 | 0.00 | 0.00 | 0.00 | 54 | 1015.0 |
| 20260502060347 | 56 | 44 | 10.0 | 14.0 | 0.00 | 0.00 | 0.00 | 54 | 1014.8 |
| 20260502060213 | 56 | 19 | 8.0 | 14.0 | 0.00 | 0.00 | 0.00 | 54 | 1014.9 |
| 20260502060120 | 56 | 360 | 6.0 | 12.0 | 0.00 | 0.00 | 0.00 | 54 | 1014.9 |
| 20260502060048 | 56 | 29 | 7.0 | 12.0 | 0.00 | 0.00 | 0.00 | 54 | 1014.9 |
| 20260502055919 | 56 | 360 | 8.0 | 12.0 | 0.00 | 0.00 | 0.00 | 53 | 1014.8 |
| 20260502055826 | 56 | 16 | 7.0 | 12.0 | 0.00 | 0.00 | 0.00 | 54 | 1014.8 |
| 20260502055714 | 56 | 344 | 7.0 | 12.0 | 0.00 | 0.00 | 0.00 | 54 | 1014.8 |
| 20260502055623 | 56 | 15 | 7.0 | 12.0 | 0.00 | 0.00 | 0.00 | 54 | 1014.8 |
| 20260502055511 | 56 | 5 | 6.0 | 15.0 | 0.00 | 0.00 | 0.00 | 54 | 1014.7 |
| 20260502055418 | 56 | 360 | 6.0 | 15.0 | 0.00 | 0.00 | 0.00 | 54 | 1014.7 |
| 20260502055308 | 56 | 9 | 6.0 | 16.0 | 0.00 | 0.00 | 0.00 | 54 | 1014.7 |
| 20260502055216 | 56 | 28 | 8.0 | 16.0 | 0.00 | 0.00 | 0.00 | 54 | 1014.8 |
| 20260502055143 | 56 | 360 | 8.0 | 16.0 | 0.00 | 0.00 | 0.00 | 54 | 1014.8 |
| 20260502055050 | 56 | 13 | 9.0 | 16.0 | 0.00 | 0.00 | 0.00 | 54 | 1014.7 |
| 20260502054809 | 56 | 344 | 9.0 | 16.0 | 0.00 | 0.00 | 0.00 | 53 | 1014.6 |
| 20260502054717 | 56 | 360 | 10.0 | 16.0 | 0.00 | 0.00 | 0.00 | 53 | 1014.6 |
| 20260502054644 | 56 | 26 | 10.0 | 16.0 | 0.00 | 0.00 | 0.00 | 53 | 1014.6 |
| 20260502054510 | 56 | 5 | 10.0 | 16.0 | 0.00 | 0.00 | 0.00 | 53 | 1014.4 |
| 20260502054418 | 56 | 360 | 10.0 | 16.0 | 0.00 | 0.00 | 0.00 | 54 | 1014.5 |
| 20260502054324 | 56 | 42 | 9.0 | 16.0 | 0.00 | 0.00 | 0.00 | 53 | 1014.5 |
| 20260502054215 | 56 | 5 | 10.0 | 16.0 | 0.00 | 0.00 | 0.00 | 53 | 1014.5 |
| 20260502054124 | 56 | 350 | 10.0 | 16.0 | 0.00 | 0.00 | 0.00 | 53 | 1014.5 |
| 20260502054010 | 56 | 13 | 10.0 | 16.0 | 0.00 | 0.00 | 0.00 | 53 | 1014.4 |
| 20260502053918 | 56 | 13 | 10.0 | 16.0 | 0.00 | 0.00 | 0.00 | 53 | 1014.4 |
| 20260502053825 | 56 | 5 | 11.0 | 16.0 | 0.00 | 0.00 | 0.00 | 52 | 1014.4 |
| 20260502053711 | 56 | 15 | 10.0 | 16.0 | 0.00 | 0.00 | 0.00 | 53 | 1014.5 |
| 20260502053618 | 56 | 355 | 10.0 | 16.0 | 0.00 | 0.00 | 0.00 | 52 | 1014.4 |
| 20260502053553 | 56 | 360 | 9.0 | 16.0 | 0.00 | 0.00 | 0.00 | 53 | 1014.4 |
| 20260502053325 | 56 | 20 | 9.0 | 16.0 | 0.00 | 0.00 | 0.00 | 52 | 1014.6 |
| 20260502053213 | 56 | 5 | 10.0 | 16.0 | 0.00 | 0.00 | 0.00 | 52 | 1014.7 |
| 20260502053122 | 56 | 24 | 11.0 | 16.0 | 0.00 | 0.00 | 0.00 | 52 | 1014.7 |
| 20260502053012 | 56 | 38 | 11.0 | 15.0 | 0.00 | 0.00 | 0.00 | 53 | 1014.6 |
| 20260502052920 | 56 | 360 | 10.0 | 15.0 | 0.00 | 0.00 | 0.00 | 52 | 1014.6 |
| 20260502052848 | 56 | 22 | 8.0 | 15.0 | 0.00 | 0.00 | 0.00 | 52 | 1014.6 |
| 20260502052716 | 56 | 355 | 9.0 | 15.0 | 0.00 | 0.00 | 0.00 | 52 | 1014.5 |
| 20260502052643 | 56 | 13 | 9.0 | 15.0 | 0.00 | 0.00 | 0.00 | 52 | 1014.5 |
| 20260502052510 | 56 | 28 | 9.0 | 15.0 | 0.00 | 0.00 | 0.00 | 52 | 1014.4 |
| 20260502052422 | 56 | 22 | 10.0 | 15.0 | 0.00 | 0.00 | 0.00 | 52 | 1014.4 |
| 20260502052310 | 56 | 360 | 11.0 | 15.0 | 0.00 | 0.00 | 0.00 | 52 | 1014.4 |
| 20260502052217 | 56 | 10 | 10.0 | 15.0 | 0.00 | 0.00 | 0.00 | 52 | 1014.5 |
| 20260502052125 | 56 | 355 | 8.0 | 15.0 | 0.00 | 0.00 | 0.00 | 52 | 1014.5 |
| 20260502052055 | 56 | 318 | 8.0 | 15.0 | 0.00 | 0.00 | 0.00 | 52 | 1014.4 |
| 20260502051812 | 56 | 355 | 10.0 | 15.0 | 0.00 | 0.00 | 0.00 | 52 | 1014.6 |
| 20260502051719 | 56 | 5 | 10.0 | 15.0 | 0.00 | 0.00 | 0.00 | 52 | 1014.5 |
| 20260502051628 | 56 | 32 | 11.0 | 15.0 | 0.00 | 0.00 | 0.00 | 52 | 1014.5 |
| 20260502051514 | 56 | 360 | 10.0 | 15.0 | 0.00 | 0.00 | 0.00 | 52 | 1014.5 |
| 20260502051442 | 56 | 11 | 8.0 | 15.0 | 0.00 | 0.00 | 0.00 | 51 | 1014.5 |
| 20260502051347 | 56 | 42 | 8.0 | 15.0 | 0.00 | 0.00 | 0.00 | 52 | 1014.5 |
| 20260502051218 | 57 | 360 | 8.0 | 13.0 | 0.00 | 0.00 | 0.00 | 52 | 1014.4 |
| 20260502051126 | 57 | 19 | 8.0 | 14.0 | 0.00 | 0.00 | 0.00 | 52 | 1014.4 |
| 20260502051014 | 57 | 19 | 8.0 | 14.0 | 0.00 | 0.00 | 0.00 | 52 | 1014.4 |
| 20260502050921 | 57 | 360 | 8.0 | 16.0 | 0.00 | 0.00 | 0.00 | 51 | 1014.4 |
| 20260502050810 | 57 | 5 | 7.0 | 16.0 | 0.00 | 0.00 | 0.00 | 52 | 1014.4 |
| 20260502050721 | 57 | 15 | 6.0 | 16.0 | 0.00 | 0.00 | 0.00 | 52 | 1014.4 |
| 20260502050628 | 57 | 5 | 6.0 | 16.0 | 0.00 | 0.00 | 0.00 | 52 | 1014.3 |
| 20260502050558 | 57 | 35 | 7.0 | 16.0 | 0.00 | 0.00 | 0.00 | 52 | 1014.4 |
| 20260502050311 | 57 | 360 | 10.0 | 16.0 | 0.00 | 0.00 | 0.00 | 51 | 1014.4 |
| 20260502050219 | 57 | 24 | 12.0 | 16.0 | 0.00 | 0.00 | 0.00 | 51 | 1014.4 |
| 20260502050109 | 57 | 355 | 11.0 | 16.0 | 0.00 | 0.00 | 0.00 | 50 | 1014.4 |
| 20260502050016 | 57 | 21 | 9.0 | 15.0 | 0.00 | 0.00 | 0.00 | 51 | 1014.3 |
| 20260502045921 | 57 | 13 | 8.0 | 14.0 | 0.00 | 0.00 | 0.00 | 50 | 1014.3 |
| 20260502045809 | 57 | 335 | 9.0 | 14.0 | 0.00 | 0.00 | 0.00 | 51 | 1014.3 |
| 20260502045716 | 57 | 43 | 10.0 | 14.0 | 0.00 | 0.00 | 0.00 | 51 | 1014.2 |
| 20260502045627 | 57 | 17 | 9.0 | 14.0 | 0.00 | 0.00 | 0.00 | 51 | 1014.2 |
| 20260502045515 | 57 | 28 | 8.0 | 14.0 | 0.00 | 0.00 | 0.00 | 51 | 1014.3 |
| 20260502045422 | 57 | 16 | 8.0 | 16.0 | 0.00 | 0.00 | 0.00 | 51 | 1014.3 |
| 20260502045309 | 57 | 9 | 8.0 | 16.0 | 0.00 | 0.00 | 0.00 | 50 | 1014.1 |
| 20260502045218 | 57 | 23 | 8.0 | 16.0 | 0.00 | 0.00 | 0.00 | 50 | 1014.1 |
| 20260502045145 | 57 | 16 | 9.0 | 16.0 | 0.00 | 0.00 | 0.00 | 50 | 1014.1 |
| 20260502045059 | 57 | 346 | 8.0 | 16.0 | 0.00 | 0.00 | 0.00 | 51 | 1014.0 |
| 20260502044812 | 57 | 22 | 7.0 | 16.0 | 0.00 | 0.00 | 0.00 | 51 | 1014.1 |
| 20260502044719 | 57 | 350 | 8.0 | 16.0 | 0.00 | 0.00 | 0.00 | 51 | 1014.1 |
| 20260502044647 | 57 | 360 | 9.0 | 16.0 | 0.00 | 0.00 | 0.00 | 51 | 1014.1 |
| 20260502044513 | 57 | 360 | 9.0 | 13.0 | 0.00 | 0.00 | 0.00 | 51 | 1014.0 |
| 20260502044424 | 57 | 9 | 8.0 | 12.0 | 0.00 | 0.00 | 0.00 | 51 | 1014.0 |
| 20260502044310 | 57 | 32 | 7.0 | 13.0 | 0.00 | 0.00 | 0.00 | 51 | 1014.0 |
| 20260502044217 | 57 | 28 | 7.0 | 13.0 | 0.00 | 0.00 | 0.00 | 51 | 1014.0 |
| 20260502044124 | 57 | 10 | 7.0 | 13.0 | 0.00 | 0.00 | 0.00 | 51 | 1014.0 |
| 20260502044031 | 57 | 37 | 8.0 | 13.0 | 0.00 | 0.00 | 0.00 | 51 | 1014.0 |
| 20260502043919 | 57 | 19 | 8.0 | 13.0 | 0.00 | 0.00 | 0.00 | 52 | 1014.0 |
| 20260502043831 | 57 | 355 | 7.0 | 13.0 | 0.00 | 0.00 | 0.00 | 51 | 1014.0 |
| 20260502043737 | 57 | 10 | 6.0 | 13.0 | 0.00 | 0.00 | 0.00 | 51 | 1014.0 |
| 20260502043623 | 57 | 18 | 8.0 | 13.0 | 0.00 | 0.00 | 0.00 | 51 | 1014.0 |
| 20260502043555 | 57 | 24 | 9.0 | 13.0 | 0.00 | 0.00 | 0.00 | 51 | 1014.1 |
| 20260502043348 | 57 | 33 | 9.0 | 14.0 | 0.00 | 0.00 | 0.00 | 51 | 1014.1 |
| 20260502043219 | 57 | 28 | 8.0 | 14.0 | 0.00 | 0.00 | 0.00 | 52 | 1014.1 |
| 20260502043147 | 57 | 13 | 7.0 | 14.0 | 0.00 | 0.00 | 0.00 | 51 | 1014.1 |
| 20260502043014 | 57 | 9 | 7.0 | 14.0 | 0.00 | 0.00 | 0.00 | 51 | 1014.1 |
| 20260502042942 | 57 | 9 | 7.0 | 14.0 | 0.00 | 0.00 | 0.00 | 51 | 1014.1 |
| 20260502042810 | 57 | 343 | 7.0 | 14.0 | 0.00 | 0.00 | 0.00 | 52 | 1014.0 |
| 20260502042738 | 57 | 5 | 9.0 | 14.0 | 0.00 | 0.00 | 0.00 | 52 | 1014.0 |
| 20260502042625 | 57 | 27 | 9.0 | 14.0 | 0.00 | 0.00 | 0.00 | 52 | 1014.0 |
| 20260502042516 | 57 | 5 | 8.0 | 12.0 | 0.00 | 0.00 | 0.00 | 52 | 1014.0 |
| 20260502042423 | 57 | 335 | 7.0 | 10.0 | 0.00 | 0.00 | 0.00 | 51 | 1014.0 |
| 20260502042311 | 57 | 38 | 6.0 | 10.0 | 0.00 | 0.00 | 0.00 | 52 | 1014.1 |
| 20260502042238 | 57 | 5 | 5.0 | 10.0 | 0.00 | 0.00 | 0.00 | 52 | 1014.1 |
| 20260502042124 | 57 | 42 | 5.0 | 10.0 | 0.00 | 0.00 | 0.00 | 52 | 1014.1 |
| 20260502042058 | 57 | 24 | 5.0 | 10.0 | 0.00 | 0.00 | 0.00 | 52 | 1014.1 |
| 20260502041833 | 57 | 26 | 6.0 | 10.0 | 0.00 | 0.00 | 0.00 | 52 | 1014.1 |
| 20260502041719 | 57 | 24 | 6.0 | 10.0 | 0.00 | 0.00 | 0.00 | 53 | 1014.2 |
| 20260502041626 | 57 | 46 | 6.0 | 10.0 | 0.00 | 0.00 | 0.00 | 53 | 1014.2 |
| 20260502041513 | 57 | 36 | 6.0 | 10.0 | 0.00 | 0.00 | 0.00 | 53 | 1014.1 |
| 20260502041421 | 57 | 30 | 5.0 | 9.0 | 0.00 | 0.00 | 0.00 | 53 | 1014.1 |
| 20260502041310 | 57 | 42 | 4.0 | 9.0 | 0.00 | 0.00 | 0.00 | 53 | 1014.1 |
| 20260502041238 | 57 | 9 | 5.0 | 9.0 | 0.00 | 0.00 | 0.00 | 53 | 1014.2 |
| 20260502041125 | 57 | 31 | 5.0 | 10.0 | 0.00 | 0.00 | 0.00 | 53 | 1014.2 |
| 20260502041012 | 57 | 355 | 5.0 | 10.0 | 0.00 | 0.00 | 0.00 | 54 | 1014.1 |
| 20260502040921 | 58 | 31 | 5.0 | 10.0 | 0.00 | 0.00 | 0.00 | 54 | 1014.1 |
| 20260502040811 | 57 | 5 | 5.0 | 10.0 | 0.00 | 0.00 | 0.00 | 54 | 1014.4 |
| 20260502040719 | 57 | 22 | 6.0 | 10.0 | 0.00 | 0.00 | 0.00 | 54 | 1014.3 |
| 20260502040626 | 57 | 24 | 6.0 | 10.0 | 0.00 | 0.00 | 0.00 | 53 | 1014.3 |
| 20260502040556 | 57 | 34 | 6.0 | 10.0 | 0.00 | 0.00 | 0.00 | 54 | 1014.2 |
| 20260502040309 | 57 | 14 | 5.0 | 11.0 | 0.00 | 0.00 | 0.00 | 53 | 1014.1 |
| 20260502040220 | 58 | 11 | 6.0 | 11.0 | 0.00 | 0.00 | 0.00 | 53 | 1014.1 |
| 20260502040127 | 58 | 17 | 5.0 | 11.0 | 0.00 | 0.00 | 0.00 | 54 | 1014.2 |
| 20260502040014 | 58 | 24 | 5.0 | 11.0 | 0.00 | 0.00 | 0.00 | 55 | 1014.2 |
| 20260502035921 | 58 | 12 | 5.0 | 11.0 | 0.00 | 0.00 | 0.00 | 55 | 1014.2 |
| 20260502035809 | 58 | 5 | 6.0 | 11.0 | 0.00 | 0.00 | 0.00 | 55 | 1014.3 |
| 20260502035720 | 58 | 16 | 7.0 | 11.0 | 0.00 | 0.00 | 0.00 | 55 | 1014.3 |
| 20260502035627 | 58 | 10 | 7.0 | 11.0 | 0.00 | 0.00 | 0.00 | 55 | 1014.3 |
| 20260502035535 | 58 | 13 | 7.0 | 11.0 | 0.00 | 0.00 | 0.00 | 55 | 1014.3 |
| 20260502035421 | 58 | 11 | 7.0 | 11.0 | 0.00 | 0.00 | 0.00 | 55 | 1014.3 |
| 20260502035327 | 58 | 13 | 7.0 | 11.0 | 0.00 | 0.00 | 0.00 | 55 | 1014.1 |
| 20260502035214 | 58 | 38 | 7.0 | 11.0 | 0.00 | 0.00 | 0.00 | 56 | 1014.1 |
| 20260502035126 | 58 | 41 | 7.0 | 11.0 | 0.00 | 0.00 | 0.00 | 56 | 1014.1 |
| 20260502035056 | 58 | 360 | 6.0 | 10.0 | 0.00 | 0.00 | 0.00 | 56 | 1014.0 |
| 20260502034810 | 58 | 5 | 6.0 | 10.0 | 0.00 | 0.00 | 0.00 | 57 | 1014.1 |
| 20260502034738 | 58 | 5 | 6.0 | 10.0 | 0.00 | 0.00 | 0.00 | 57 | 1014.0 |
| 20260502034623 | 58 | 5 | 6.0 | 10.0 | 0.00 | 0.00 | 0.00 | 56 | 1014.0 |
| 20260502034513 | 58 | 21 | 6.0 | 10.0 | 0.00 | 0.00 | 0.00 | 57 | 1014.1 |
| 20260502034419 | 58 | 40 | 5.0 | 10.0 | 0.00 | 0.00 | 0.00 | 57 | 1014.2 |
| 20260502034327 | 58 | 14 | 5.0 | 10.0 | 0.00 | 0.00 | 0.00 | 57 | 1014.2 |
| 20260502034216 | 58 | 12 | 5.0 | 10.0 | 0.00 | 0.00 | 0.00 | 57 | 1014.1 |
| 20260502034123 | 58 | 22 | 5.0 | 10.0 | 0.00 | 0.00 | 0.00 | 57 | 1014.1 |
| 20260502034012 | 58 | 24 | 6.0 | 10.0 | 0.00 | 0.00 | 0.00 | 56 | 1014.1 |
| 20260502033924 | 58 | 38 | 6.0 | 10.0 | 0.00 | 0.00 | 0.00 | 56 | 1014.1 |
| 20260502033813 | 58 | 30 | 6.0 | 10.0 | 0.00 | 0.00 | 0.00 | 56 | 1014.0 |
| 20260502033721 | 58 | 25 | 6.0 | 10.0 | 0.00 | 0.00 | 0.00 | 57 | 1014.0 |
| 20260502033608 | 58 | 34 | 5.0 | 11.0 | 0.00 | 0.00 | 0.00 | 56 | 1014.1 |
| 20260502033542 | 58 | 30 | 5.0 | 11.0 | 0.00 | 0.00 | 0.00 | 56 | 1014.1 |
| 20260502033316 | 58 | 26 | 5.0 | 11.0 | 0.00 | 0.00 | 0.00 | 57 | 1014.2 |
| 20260502033222 | 58 | 49 | 5.0 | 11.0 | 0.00 | 0.00 | 0.00 | 57 | 1014.2 |
| 20260502033109 | 58 | 28 | 5.0 | 11.0 | 0.00 | 0.00 | 0.00 | 58 | 1014.2 |
| 20260502033018 | 58 | 15 | 5.0 | 11.0 | 0.00 | 0.00 | 0.00 | 59 | 1014.3 |
| 20260502032908 | 58 | 59 | 6.0 | 11.0 | 0.00 | 0.00 | 0.00 | 58 | 1014.3 |
| 20260502032816 | 58 | 350 | 6.0 | 11.0 | 0.00 | 0.00 | 0.00 | 58 | 1014.3 |
| 20260502032723 | 58 | 16 | 6.0 | 11.0 | 0.00 | 0.00 | 0.00 | 59 | 1014.3 |
| 20260502032611 | 58 | 17 | 7.0 | 11.0 | 0.00 | 0.00 | 0.00 | 58 | 1014.2 |
| 20260502032518 | 58 | 13 | 7.0 | 11.0 | 0.00 | 0.00 | 0.00 | 58 | 1014.3 |
| 20260502032426 | 58 | 44 | 6.0 | 10.0 | 0.00 | 0.00 | 0.00 | 58 | 1014.3 |
| 20260502032336 | 58 | 5 | 6.0 | 10.0 | 0.00 | 0.00 | 0.00 | 58 | 1014.4 |
| 20260502032221 | 58 | 9 | 5.0 | 10.0 | 0.00 | 0.00 | 0.00 | 59 | 1014.4 |
| 20260502032128 | 58 | 22 | 6.0 | 10.0 | 0.00 | 0.00 | 0.00 | 59 | 1014.4 |
| 20260502032059 | 58 | 27 | 6.0 | 14.0 | 0.00 | 0.00 | 0.00 | 59 | 1014.4 |
| 20260502031813 | 58 | 51 | 5.0 | 14.0 | 0.00 | 0.00 | 0.00 | 60 | 1014.5 |
| 20260502031722 | 58 | 13 | 5.0 | 14.0 | 0.00 | 0.00 | 0.00 | 59 | 1014.5 |
| 20260502031609 | 58 | 18 | 6.0 | 14.0 | 0.00 | 0.00 | 0.00 | 60 | 1014.5 |
| 20260502031518 | 58 | 360 | 7.0 | 14.0 | 0.00 | 0.00 | 0.00 | 59 | 1014.5 |
| 20260502031446 | 58 | 22 | 7.0 | 14.0 | 0.00 | 0.00 | 0.00 | 60 | 1014.5 |
| 20260502031313 | 58 | 40 | 8.0 | 14.0 | 0.00 | 0.00 | 0.00 | 61 | 1014.6 |
| 20260502031220 | 58 | 16 | 6.0 | 10.0 | 0.00 | 0.00 | 0.00 | 61 | 1014.6 |
| 20260502031111 | 58 | 20 | 6.0 | 11.0 | 0.00 | 0.00 | 0.00 | 61 | 1014.6 |
| 20260502031020 | 58 | 11 | 7.0 | 12.0 | 0.00 | 0.00 | 0.00 | 61 | 1014.6 |
| 20260502030927 | 58 | 11 | 7.0 | 12.0 | 0.00 | 0.00 | 0.00 | 61 | 1014.6 |
| 20260502030814 | 58 | 36 | 6.0 | 12.0 | 0.00 | 0.00 | 0.00 | 61 | 1014.7 |
| 20260502030721 | 58 | 16 | 5.0 | 12.0 | 0.00 | 0.00 | 0.00 | 62 | 1014.7 |
| 20260502030613 | 58 | 9 | 6.0 | 12.0 | 0.00 | 0.00 | 0.00 | 62 | 1014.7 |
| 20260502030544 | 58 | 5 | 8.0 | 12.0 | 0.00 | 0.00 | 0.00 | 62 | 1014.7 |
| 20260502030318 | 58 | 5 | 7.0 | 12.0 | 0.00 | 0.00 | 0.00 | 63 | 1014.7 |
| 20260502030227 | 58 | 360 | 5.0 | 12.0 | 0.00 | 0.00 | 0.00 | 65 | 1014.7 |
| 20260502030114 | 59 | 19 | 4.0 | 12.0 | 0.00 | 0.00 | 0.00 | 64 | 1014.6 |
| 20260502030026 | 59 | 345 | 5.0 | 12.0 | 0.00 | 0.00 | 0.00 | 64 | 1014.6 |
| 20260502025913 | 59 | 5 | 7.0 | 12.0 | 0.00 | 0.00 | 0.00 | 64 | 1014.5 |
| 20260502025840 | 59 | 360 | 7.0 | 12.0 | 0.00 | 0.00 | 0.00 | 64 | 1014.6 |
| 20260502025726 | 59 | 26 | 7.0 | 12.0 | 0.00 | 0.00 | 0.00 | 65 | 1014.6 |
| 20260502025615 | 59 | 5 | 8.0 | 12.0 | 0.00 | 0.00 | 0.00 | 65 | 1014.5 |
| 20260502025523 | 59 | 355 | 8.0 | 12.0 | 0.00 | 0.00 | 0.00 | 62 | 1014.5 |
| 20260502025414 | 59 | 30 | 7.0 | 12.0 | 0.00 | 0.00 | 0.00 | 62 | 1014.6 |
| 20260502025322 | 59 | 35 | 7.0 | 11.0 | 0.00 | 0.00 | 0.00 | 61 | 1014.6 |
| 20260502025209 | 60 | 30 | 8.0 | 11.0 | 0.00 | 0.00 | 0.00 | 63 | 1014.5 |
| 20260502025118 | 60 | 340 | 8.0 | 12.0 | 0.00 | 0.00 | 0.00 | 62 | 1014.6 |
| 20260502025052 | 60 | 355 | 8.0 | 12.0 | 0.00 | 0.00 | 0.00 | 61 | 1014.6 |
| 20260502024827 | 60 | 37 | 7.0 | 12.0 | 0.00 | 0.00 | 0.00 | 59 | 1014.6 |
| 20260502024713 | 60 | 355 | 8.0 | 12.0 | 0.00 | 0.00 | 0.00 | 58 | 1014.6 |
| 20260502024621 | 60 | 13 | 8.0 | 12.0 | 0.00 | 0.00 | 0.00 | 58 | 1014.6 |
| 20260502024509 | 60 | 24 | 7.0 | 12.0 | 0.00 | 0.00 | 0.00 | 59 | 1014.5 |
| 20260502024436 | 60 | 360 | 8.0 | 13.0 | 0.00 | 0.00 | 0.00 | 58 | 1014.5 |
| 20260502024347 | 60 | 355 | 8.0 | 16.0 | 0.00 | 0.00 | 0.00 | 58 | 1014.5 |
| 20260502024234 | 60 | 360 | 8.0 | 16.0 | 0.00 | 0.00 | 0.00 | 58 | 1014.5 |
| 20260502024140 | 60 | 19 | 7.0 | 16.0 | 0.00 | 0.00 | 0.00 | 59 | 1014.5 |
| 20260502024027 | 60 | 13 | 6.0 | 16.0 | 0.00 | 0.00 | 0.00 | 59 | 1014.5 |
| 20260502023914 | 60 | 339 | 5.0 | 16.0 | 0.00 | 0.00 | 0.00 | 59 | 1014.5 |
| 20260502023821 | 60 | 15 | 6.0 | 16.0 | 0.00 | 0.00 | 0.00 | 59 | 1014.5 |
| 20260502023713 | 60 | 45 | 9.0 | 16.0 | 0.00 | 0.00 | 0.00 | 58 | 1014.4 |
| 20260502023639 | 60 | 11 | 9.0 | 16.0 | 0.00 | 0.00 | 0.00 | 58 | 1014.4 |
| 20260502023611 | 60 | 5 | 10.0 | 16.0 | 0.00 | 0.00 | 0.00 | 58 | 1014.4 |
| 20260502023322 | 60 | 9 | 7.0 | 15.0 | 0.00 | 0.00 | 0.00 | 58 | 1014.3 |
| 20260502023210 | 60 | 5 | 5.0 | 15.0 | 0.00 | 0.00 | 0.00 | 58 | 1014.3 |
| 20260502023123 | 60 | 350 | 8.0 | 15.0 | 0.00 | 0.00 | 0.00 | 58 | 1014.3 |
| 20260502023010 | 60 | 337 | 10.0 | 16.0 | 0.00 | 0.00 | 0.00 | 58 | 1014.4 |
| 20260502022918 | 60 | 5 | 10.0 | 16.0 | 0.00 | 0.00 | 0.00 | 58 | 1014.3 |
| 20260502022848 | 60 | 16 | 9.0 | 16.0 | 0.00 | 0.00 | 0.00 | 58 | 1014.3 |
| 20260502022714 | 60 | 5 | 7.0 | 16.0 | 0.00 | 0.00 | 0.00 | 58 | 1014.2 |
| 20260502022621 | 60 | 342 | 7.0 | 16.0 | 0.00 | 0.00 | 0.00 | 58 | 1014.2 |
| 20260502022533 | 60 | 360 | 9.0 | 16.0 | 0.00 | 0.00 | 0.00 | 58 | 1014.1 |
| 20260502022420 | 60 | 341 | 12.0 | 18.0 | 0.00 | 0.00 | 0.00 | 58 | 1014.1 |
| 20260502022309 | 60 | 355 | 11.0 | 18.0 | 0.00 | 0.00 | 0.00 | 58 | 1014.1 |
| 20260502022217 | 60 | 15 | 10.0 | 18.0 | 0.00 | 0.00 | 0.00 | 58 | 1014.1 |
| 20260502022125 | 60 | 5 | 10.0 | 18.0 | 0.00 | 0.00 | 0.00 | 58 | 1014.1 |
| 20260502022058 | 60 | 19 | 10.0 | 18.0 | 0.00 | 0.00 | 0.00 | 59 | 1014.1 |
| 20260502021833 | 60 | 15 | 11.0 | 18.0 | 0.00 | 0.00 | 0.00 | 59 | 1014.0 |
| 20260502021720 | 61 | 338 | 12.0 | 18.0 | 0.00 | 0.00 | 0.00 | 59 | 1014.0 |
| 20260502021608 | 61 | 16 | 11.0 | 18.0 | 0.00 | 0.00 | 0.00 | 60 | 1013.9 |
| 20260502021514 | 61 | 323 | 9.0 | 16.0 | 0.00 | 0.00 | 0.00 | 61 | 1013.9 |
| 20260502021421 | 61 | 51 | 8.0 | 16.0 | 0.00 | 0.00 | 0.00 | 62 | 1013.9 |
| 20260502021313 | 61 | 355 | 7.0 | 16.0 | 0.00 | 0.00 | 0.00 | 62 | 1013.9 |
| 20260502021220 | 61 | 5 | 8.0 | 16.0 | 0.00 | 0.00 | 0.00 | 62 | 1013.9 |
| 20260502021127 | 61 | 360 | 9.0 | 16.0 | 0.00 | 0.00 | 0.00 | 63 | 1013.9 |
| 20260502021015 | 61 | 25 | 10.0 | 16.0 | 0.00 | 0.00 | 0.00 | 62 | 1014.0 |
| 20260502020922 | 61 | 355 | 10.0 | 16.0 | 0.00 | 0.00 | 0.00 | 63 | 1014.0 |
| 20260502020812 | 61 | 22 | 7.0 | 16.0 | 0.00 | 0.00 | 0.00 | 64 | 1014.0 |
| 20260502020718 | 61 | 15 | 6.0 | 11.0 | 0.00 | 0.00 | 0.00 | 63 | 1013.9 |
| 20260502020625 | 61 | 20 | 7.0 | 11.0 | 0.00 | 0.00 | 0.00 | 63 | 1013.9 |
| 20260502020555 | 61 | 15 | 7.0 | 11.0 | 0.00 | 0.00 | 0.00 | 63 | 1014.0 |
| 20260502020313 | 61 | 360 | 8.0 | 16.0 | 0.00 | 0.00 | 0.00 | 64 | 1013.9 |
| 20260502020220 | 61 | 5 | 7.0 | 16.0 | 0.00 | 0.00 | 0.00 | 64 | 1013.9 |
| 20260502020109 | 61 | 5 | 6.0 | 16.0 | 0.00 | 0.00 | 0.00 | 64 | 1013.7 |
| 20260502020016 | 61 | 5 | 6.0 | 16.0 | 0.00 | 0.00 | 0.00 | 64 | 1013.7 |
| 20260502015943 | 61 | 360 | 6.0 | 16.0 | 0.00 | 0.00 | 0.00 | 64 | 1013.7 |
| 20260502015810 | 61 | 14 | 8.0 | 16.0 | 0.00 | 0.00 | 0.00 | 64 | 1013.6 |
| 20260502015721 | 61 | 5 | 10.0 | 16.0 | 0.00 | 0.00 | 0.00 | 64 | 1013.6 |
| 20260502015608 | 61 | 340 | 9.0 | 16.0 | 0.00 | 0.00 | 0.00 | 65 | 1013.7 |
| 20260502015517 | 61 | 9 | 8.0 | 14.0 | 0.00 | 0.00 | 0.00 | 66 | 1013.7 |
| 20260502015423 | 61 | 355 | 7.0 | 11.0 | 0.00 | 0.00 | 0.00 | 66 | 1013.7 |
| 20260502015331 | 61 | 326 | 8.0 | 11.0 | 0.00 | 0.00 | 0.00 | 67 | 1013.6 |
| 20260502015237 | 61 | 5 | 6.0 | 11.0 | 0.00 | 0.00 | 0.00 | 66 | 1013.7 |
| 20260502015125 | 61 | 336 | 6.0 | 11.0 | 0.00 | 0.00 | 0.00 | 67 | 1013.7 |
| 20260502015057 | 61 | 355 | 6.0 | 9.0 | 0.00 | 0.00 | 0.00 | 67 | 1013.6 |
| 20260502014810 | 61 | 5 | 6.0 | 9.0 | 0.00 | 0.00 | 0.00 | 66 | 1013.7 |
| 20260502014717 | 61 | 355 | 6.0 | 9.0 | 0.00 | 0.00 | 0.00 | 67 | 1013.7 |
| 20260502014624 | 61 | 9 | 5.0 | 9.0 | 0.00 | 0.00 | 0.00 | 66 | 1013.7 |
| 20260502014514 | 61 | 355 | 6.0 | 9.0 | 0.00 | 0.00 | 0.00 | 67 | 1013.6 |
| 20260502014441 | 61 | 348 | 6.0 | 9.0 | 0.00 | 0.00 | 0.00 | 67 | 1013.7 |
| 20260502014347 | 61 | 346 | 7.0 | 9.0 | 0.00 | 0.00 | 0.00 | 66 | 1013.7 |
| 20260502014213 | 62 | 338 | 5.0 | 9.0 | 0.00 | 0.00 | 0.00 | 66 | 1013.7 |
| 20260502014119 | 62 | 360 | 5.0 | 9.0 | 0.00 | 0.00 | 0.00 | 66 | 1013.7 |
| 20260502014026 | 62 | 355 | 5.0 | 9.0 | 0.00 | 0.00 | 0.00 | 66 | 1013.7 |
| 20260502013917 | 62 | 5 | 5.0 | 12.0 | 0.00 | 0.00 | 0.00 | 66 | 1013.7 |
| 20260502013824 | 62 | 355 | 5.0 | 12.0 | 0.00 | 0.00 | 0.00 | 66 | 1013.7 |
| 20260502013712 | 62 | 345 | 5.0 | 12.0 | 0.00 | 0.00 | 0.00 | 66 | 1013.7 |
| 20260502013620 | 62 | 343 | 5.0 | 12.0 | 0.00 | 0.00 | 0.00 | 65 | 1013.7 |
| 20260502013551 | 62 | 360 | 4.0 | 12.0 | 0.00 | 0.00 | 0.00 | 65 | 1013.7 |
| 20260502013309 | 62 | 10 | 6.0 | 12.0 | 0.00 | 0.00 | 0.00 | 65 | 1013.6 |
| 20260502013216 | 62 | 12 | 6.0 | 12.0 | 0.00 | 0.00 | 0.00 | 65 | 1013.5 |
| 20260502013124 | 62 | 5 | 6.0 | 12.0 | 0.00 | 0.00 | 0.00 | 65 | 1013.5 |
| 20260502013011 | 62 | 9 | 4.0 | 9.0 | 0.00 | 0.00 | 0.00 | 65 | 1013.6 |
| 20260502012918 | 62 | 17 | 5.0 | 9.0 | 0.00 | 0.00 | 0.00 | 65 | 1013.7 |
| 20260502012810 | 62 | 360 | 7.0 | 9.0 | 0.00 | 0.00 | 0.00 | 65 | 1013.6 |
| 20260502012717 | 62 | 22 | 6.0 | 9.0 | 0.00 | 0.00 | 0.00 | 65 | 1013.7 |
| 20260502012626 | 62 | 13 | 5.0 | 9.0 | 0.00 | 0.00 | 0.00 | 65 | 1013.7 |
| 20260502012513 | 62 | 360 | 4.0 | 9.0 | 0.00 | 0.00 | 0.00 | 66 | 1013.7 |
| 20260502012421 | 62 | 343 | 5.0 | 9.0 | 0.00 | 0.00 | 0.00 | 66 | 1013.7 |
| 20260502012312 | 62 | 26 | 5.0 | 9.0 | 0.00 | 0.00 | 0.00 | 66 | 1013.6 |
| 20260502012219 | 62 | 5 | 5.0 | 9.0 | 0.00 | 0.00 | 0.00 | 66 | 1013.8 |
| 20260502012127 | 62 | 17 | 5.0 | 9.0 | 0.00 | 0.00 | 0.00 | 66 | 1013.8 |
| 20260502012058 | 62 | 351 | 6.0 | 9.0 | 0.00 | 0.00 | 0.00 | 66 | 1013.7 |
| 20260502011812 | 62 | 340 | 6.0 | 9.0 | 0.00 | 0.00 | 0.00 | 66 | 1013.7 |
| 20260502011723 | 62 | 342 | 6.0 | 9.0 | 0.00 | 0.00 | 0.00 | 66 | 1013.7 |
| 20260502011610 | 62 | 321 | 6.0 | 8.0 | 0.00 | 0.00 | 0.00 | 65 | 1013.7 |
| 20260502011517 | 62 | 342 | 5.0 | 8.0 | 0.00 | 0.00 | 0.00 | 65 | 1013.7 |
| 20260502011426 | 62 | 340 | 5.0 | 8.0 | 0.00 | 0.00 | 0.00 | 65 | 1013.7 |
| 20260502011313 | 62 | 348 | 5.0 | 8.0 | 0.00 | 0.00 | 0.00 | 65 | 1013.7 |
| 20260502011241 | 62 | 336 | 5.0 | 8.0 | 0.00 | 0.00 | 0.00 | 65 | 1013.7 |
| 20260502011112 | 62 | 343 | 5.0 | 8.0 | 0.00 | 0.00 | 0.00 | 65 | 1013.7 |
| 20260502011019 | 62 | 343 | 5.0 | 8.0 | 0.00 | 0.00 | 0.00 | 65 | 1013.6 |
| 20260502010926 | 62 | 337 | 4.0 | 8.0 | 0.00 | 0.00 | 0.00 | 65 | 1013.6 |
| 20260502010834 | 62 | 307 | 3.0 | 5.0 | 0.00 | 0.00 | 0.00 | 65 | 1013.7 |
| 20260502010721 | 63 | 323 | 3.0 | 5.0 | 0.00 | 0.00 | 0.00 | 65 | 1013.7 |
| 20260502010627 | 63 | 330 | 3.0 | 5.0 | 0.00 | 0.00 | 0.00 | 65 | 1013.7 |
| 20260502010601 | 63 | 341 | 3.0 | 4.0 | 0.00 | 0.00 | 0.00 | 65 | 1013.7 |
| 20260502010314 | 63 | 322 | 3.0 | 4.0 | 0.00 | 0.00 | 0.00 | 65 | 1013.6 |
| 20260502010222 | 63 | 338 | 3.0 | 4.0 | 0.00 | 0.00 | 0.00 | 65 | 1013.6 |
| 20260502010110 | 63 | 321 | 2.0 | 4.0 | 0.00 | 0.00 | 0.00 | 65 | 1013.5 |
| 20260502010041 | 63 | 331 | 2.0 | 4.0 | 0.00 | 0.00 | 0.00 | 65 | 1013.5 |
| 20260502005927 | 63 | 325 | 3.0 | 5.0 | 0.00 | 0.00 | 0.00 | 64 | 1013.4 |
| 20260502005815 | 63 | 325 | 2.0 | 5.0 | 0.00 | 0.00 | 0.00 | 64 | 1013.4 |
| 20260502005722 | 63 | 346 | 2.0 | 5.0 | 0.00 | 0.00 | 0.00 | 64 | 1013.4 |
| 20260502005628 | 63 | 340 | 2.0 | 5.0 | 0.00 | 0.00 | 0.00 | 64 | 1013.4 |
| 20260502005536 | 63 | 318 | 2.0 | 5.0 | 0.00 | 0.00 | 0.00 | 64 | 1013.3 |
| 20260502005426 | 63 | 316 | 2.0 | 5.0 | 0.00 | 0.00 | 0.00 | 64 | 1013.3 |
| 20260502005312 | 63 | 332 | 3.0 | 5.0 | 0.00 | 0.00 | 0.00 | 64 | 1013.3 |
| 20260502005220 | 63 | 338 | 3.0 | 5.0 | 0.00 | 0.00 | 0.00 | 64 | 1013.3 |
| 20260502005127 | 63 | 331 | 3.0 | 5.0 | 0.00 | 0.00 | 0.00 | 64 | 1013.4 |
| 20260502005057 | 63 | 302 | 4.0 | 5.0 | 0.00 | 0.00 | 0.00 | 63 | 1013.3 |
| 20260502004815 | 63 | 329 | 3.0 | 5.0 | 0.00 | 0.00 | 0.00 | 63 | 1013.3 |
| 20260502004723 | 63 | 325 | 3.0 | 5.0 | 0.00 | 0.00 | 0.00 | 63 | 1013.3 |
| 20260502004610 | 63 | 346 | 4.0 | 5.0 | 0.00 | 0.00 | 0.00 | 63 | 1013.3 |
| 20260502004538 | 63 | 309 | 4.0 | 5.0 | 0.00 | 0.00 | 0.00 | 63 | 1013.3 |
| 20260502004424 | 63 | 329 | 4.0 | 5.0 | 0.00 | 0.00 | 0.00 | 63 | 1013.3 |
| 20260502004310 | 63 | 334 | 3.0 | 4.0 | 0.00 | 0.00 | 0.00 | 63 | 1013.3 |
| 20260502004222 | 63 | 335 | 3.0 | 4.0 | 0.00 | 0.00 | 0.00 | 63 | 1013.3 |
| 20260502004127 | 63 | 338 | 3.0 | 4.0 | 0.00 | 0.00 | 0.00 | 63 | 1013.3 |
| 20260502004015 | 63 | 323 | 3.0 | 4.0 | 0.00 | 0.00 | 0.00 | 63 | 1013.3 |
| 20260502003923 | 63 | 323 | 3.0 | 4.0 | 0.00 | 0.00 | 0.00 | 63 | 1013.3 |
| 20260502003810 | 63 | 314 | 3.0 | 4.0 | 0.00 | 0.00 | 0.00 | 63 | 1013.2 |
| 20260502003722 | 63 | 331 | 3.0 | 4.0 | 0.00 | 0.00 | 0.00 | 63 | 1013.2 |
| 20260502003630 | 63 | 327 | 3.0 | 4.0 | 0.00 | 0.00 | 0.00 | 63 | 1013.2 |
| 20260502003600 | 63 | 331 | 3.0 | 4.0 | 0.00 | 0.00 | 0.00 | 63 | 1013.2 |
| 20260502003334 | 63 | 320 | 3.0 | 5.0 | 0.00 | 0.00 | 0.00 | 63 | 1013.1 |
| 20260502003221 | 64 | 315 | 2.0 | 5.0 | 0.00 | 0.00 | 0.00 | 63 | 1013.1 |
| 20260502003113 | 64 | 333 | 2.0 | 5.0 | 0.00 | 0.00 | 0.00 | 63 | 1013.0 |
| 20260502003020 | 64 | 340 | 3.0 | 5.0 | 0.00 | 0.00 | 0.00 | 62 | 1013.0 |
| 20260502002945 | 64 | 312 | 3.0 | 5.0 | 0.00 | 0.00 | 0.00 | 62 | 1013.0 |
| 20260502002813 | 64 | 318 | 3.0 | 5.0 | 0.00 | 0.00 | 0.00 | 62 | 1012.9 |
| 20260502002719 | 64 | 340 | 3.0 | 5.0 | 0.00 | 0.00 | 0.00 | 62 | 1012.9 |
| 20260502002625 | 64 | 318 | 3.0 | 5.0 | 0.00 | 0.00 | 0.00 | 62 | 1012.9 |
| 20260502002518 | 64 | 326 | 4.0 | 5.0 | 0.00 | 0.00 | 0.00 | 62 | 1012.7 |
| 20260502002425 | 64 | 346 | 4.0 | 5.0 | 0.00 | 0.00 | 0.00 | 62 | 1012.7 |
| 20260502002311 | 64 | 348 | 3.0 | 5.0 | 0.00 | 0.00 | 0.00 | 61 | 1012.7 |
| 20260502002218 | 64 | 343 | 2.0 | 4.0 | 0.00 | 0.00 | 0.00 | 61 | 1012.7 |
| 20260502002125 | 64 | 343 | 3.0 | 4.0 | 0.00 | 0.00 | 0.00 | 61 | 1012.7 |
| 20260502002059 | 64 | 325 | 3.0 | 4.0 | 0.00 | 0.00 | 0.00 | 61 | 1012.5 |
| 20260502001810 | 64 | 349 | 2.0 | 4.0 | 0.00 | 0.00 | 0.00 | 61 | 1012.5 |
| 20260502001717 | 64 | 355 | 2.0 | 4.0 | 0.00 | 0.00 | 0.00 | 61 | 1012.6 |
| 20260502001625 | 64 | 347 | 2.0 | 4.0 | 0.00 | 0.00 | 0.00 | 61 | 1012.6 |
| 20260502001513 | 64 | 348 | 2.0 | 4.0 | 0.00 | 0.00 | 0.00 | 61 | 1012.7 |
| 20260502001420 | 64 | 355 | 2.0 | 3.0 | 0.00 | 0.00 | 0.00 | 61 | 1012.7 |
| 20260502001313 | 64 | 355 | 2.0 | 4.0 | 0.00 | 0.00 | 0.00 | 60 | 1012.6 |
| 20260502001221 | 64 | 355 | 2.0 | 4.0 | 0.00 | 0.00 | 0.00 | 60 | 1012.6 |
| 20260502001149 | 64 | 355 | 2.0 | 4.0 | 0.00 | 0.00 | 0.00 | 60 | 1012.6 |
| 20260502001014 | 64 | 355 | 2.0 | 4.0 | 0.00 | 0.00 | 0.00 | 60 | 1012.7 |
| 20260502000940 | 64 | 355 | 2.0 | 4.0 | 0.00 | 0.00 | 0.00 | 60 | 1012.6 |
| 20260502000827 | 65 | 343 | 2.0 | 4.0 | 0.00 | 0.00 | 0.00 | 60 | 1012.6 |
| 20260502000718 | 65 | 348 | 2.0 | 4.0 | 0.00 | 0.00 | 0.00 | 60 | 1012.6 |
| 20260502000625 | 65 | 343 | 2.0 | 4.0 | 0.00 | 0.00 | 0.00 | 59 | 1012.6 |
| 20260502000554 | 65 | 340 | 2.0 | 4.0 | 0.00 | 0.00 | 0.00 | 59 | 1012.5 |
| 20260502000310 | 65 | 355 | 2.0 | 4.0 | 0.00 | 0.00 | 0.00 | 59 | 1012.6 |
| 20260502000219 | 65 | 318 | 2.0 | 4.0 | 0.00 | 0.00 | 0.00 | 58 | 1012.5 |
| 20260502000127 | 65 | 343 | 2.0 | 4.0 | 0.00 | 0.00 | 0.00 | 58 | 1012.5 |
| 20260502000014 | 65 | 306 | 2.0 | 4.0 | 0.00 | 0.00 | 0.00 | 58 | 1012.6 |
| 20260501235921 | 65 | 295 | 3.0 | 4.0 | 0.00 | 0.00 | 0.00 | 58 | 1012.6 |
| 20260501235849 | 65 | 309 | 3.0 | 4.0 | 0.00 | 0.00 | 0.00 | 58 | 1012.7 |
| 20260501235715 | 65 | 308 | 2.0 | 4.0 | 0.00 | 0.00 | 0.00 | 58 | 1012.5 |
| 20260501235625 | 65 | 311 | 2.0 | 4.0 | 0.00 | 0.00 | 0.00 | 58 | 1012.5 |
| 20260501235512 | 65 | 338 | 2.0 | 4.0 | 0.00 | 0.00 | 0.00 | 58 | 1012.4 |
| 20260501235420 | 65 | 334 | 3.0 | 4.0 | 0.00 | 0.00 | 0.00 | 57 | 1012.4 |
| 20260501235327 | 65 | 333 | 2.0 | 4.0 | 0.00 | 0.00 | 0.00 | 57 | 1012.3 |
| 20260501235235 | 65 | 347 | 2.0 | 5.0 | 0.00 | 0.00 | 0.00 | 57 | 1012.3 |
| 20260501235201 | 65 | 338 | 2.0 | 5.0 | 0.00 | 0.00 | 0.00 | 57 | 1012.3 |
| 20260501235113 | 65 | 313 | 2.0 | 5.0 | 0.00 | 0.00 | 0.00 | 57 | 1012.3 |
| 20260501234846 | 65 | 340 | 2.0 | 5.0 | 0.00 | 0.00 | 0.00 | 57 | 1012.4 |
| 20260501234732 | 65 | 336 | 2.0 | 5.0 | 0.00 | 0.00 | 0.00 | 57 | 1012.4 |
| 20260501234620 | 65 | 333 | 2.0 | 5.0 | 0.00 | 0.00 | 0.00 | 57 | 1012.4 |
| 20260501234527 | 65 | 313 | 3.0 | 5.0 | 0.00 | 0.00 | 0.00 | 57 | 1012.4 |
| 20260501234414 | 65 | 338 | 3.0 | 5.0 | 0.00 | 0.00 | 0.00 | 57 | 1012.4 |
| 20260501234326 | 65 | 334 | 3.0 | 5.0 | 0.00 | 0.00 | 0.00 | 57 | 1012.4 |
| 20260501234215 | 65 | 326 | 3.0 | 5.0 | 0.00 | 0.00 | 0.00 | 56 | 1012.4 |
| 20260501234121 | 65 | 324 | 3.0 | 5.0 | 0.00 | 0.00 | 0.00 | 56 | 1012.4 |
| 20260501234027 | 65 | 311 | 3.0 | 5.0 | 0.00 | 0.00 | 0.00 | 56 | 1012.4 |
| 20260501233916 | 65 | 333 | 3.0 | 5.0 | 0.00 | 0.00 | 0.00 | 56 | 1012.4 |
| 20260501233828 | 65 | 333 | 3.0 | 5.0 | 0.00 | 0.00 | 0.00 | 56 | 1012.4 |
| 20260501233716 | 65 | 315 | 3.0 | 5.0 | 0.00 | 0.00 | 0.00 | 56 | 1012.4 |
| 20260501233624 | 66 | 296 | 4.0 | 5.0 | 0.00 | 0.00 | 0.00 | 56 | 1012.4 |
| 20260501233553 | 66 | 298 | 4.0 | 5.0 | 0.00 | 0.00 | 0.00 | 56 | 1012.3 |
| 20260501233310 | 66 | 347 | 4.0 | 5.0 | 0.00 | 0.00 | 0.00 | 56 | 1012.1 |
| 20260501233217 | 66 | 360 | 4.0 | 5.0 | 0.00 | 0.00 | 0.00 | 56 | 1012.1 |
| 20260501233123 | 66 | 355 | 3.0 | 5.0 | 0.00 | 0.00 | 0.00 | 56 | 1012.1 |
| 20260501233011 | 66 | 336 | 3.0 | 5.0 | 0.00 | 0.00 | 0.00 | 56 | 1012.1 |
| 20260501232918 | 66 | 5 | 3.0 | 5.0 | 0.00 | 0.00 | 0.00 | 55 | 1012.1 |
| 20260501232824 | 66 | 355 | 3.0 | 5.0 | 0.00 | 0.00 | 0.00 | 55 | 1012.1 |
| 20260501232732 | 66 | 318 | 3.0 | 5.0 | 0.00 | 0.00 | 0.00 | 55 | 1012.1 |
| 20260501232640 | 66 | 355 | 3.0 | 6.0 | 0.00 | 0.00 | 0.00 | 55 | 1012.0 |
| 20260501232510 | 66 | 355 | 3.0 | 9.0 | 0.00 | 0.00 | 0.00 | 55 | 1012.0 |
| 20260501232436 | 66 | 349 | 3.0 | 9.0 | 0.00 | 0.00 | 0.00 | 55 | 1012.0 |
| 20260501232324 | 66 | 337 | 4.0 | 9.0 | 0.00 | 0.00 | 0.00 | 55 | 1012.0 |
| 20260501232212 | 66 | 345 | 4.0 | 9.0 | 0.00 | 0.00 | 0.00 | 55 | 1012.1 |
| 20260501232140 | 66 | 332 | 4.0 | 9.0 | 0.00 | 0.00 | 0.00 | 54 | 1012.1 |
| 20260501232115 | 66 | 355 | 4.0 | 9.0 | 0.00 | 0.00 | 0.00 | 55 | 1012.0 |
| 20260501231808 | 66 | 355 | 5.0 | 9.0 | 0.00 | 0.00 | 0.00 | 54 | 1012.3 |
| 20260501231716 | 66 | 5 | 5.0 | 9.0 | 0.00 | 0.00 | 0.00 | 54 | 1012.3 |
| 20260501231624 | 66 | 325 | 4.0 | 6.0 | 0.00 | 0.00 | 0.00 | 54 | 1012.3 |
| 20260501231512 | 66 | 339 | 4.0 | 6.0 | 0.00 | 0.00 | 0.00 | 53 | 1012.2 |
| 20260501231424 | 66 | 346 | 4.0 | 8.0 | 0.00 | 0.00 | 0.00 | 54 | 1012.2 |
| 20260501231311 | 66 | 355 | 3.0 | 8.0 | 0.00 | 0.00 | 0.00 | 53 | 1012.2 |
| 20260501231239 | 66 | 355 | 3.0 | 8.0 | 0.00 | 0.00 | 0.00 | 53 | 1012.2 |
| 20260501231144 | 66 | 323 | 3.0 | 8.0 | 0.00 | 0.00 | 0.00 | 53 | 1012.2 |
| 20260501231010 | 66 | 338 | 4.0 | 8.0 | 0.00 | 0.00 | 0.00 | 53 | 1012.2 |
| 20260501230918 | 66 | 333 | 4.0 | 8.0 | 0.00 | 0.00 | 0.00 | 53 | 1012.2 |
| 20260501230809 | 66 | 360 | 4.0 | 8.0 | 0.00 | 0.00 | 0.00 | 52 | 1012.1 |
| 20260501230716 | 66 | 348 | 4.0 | 8.0 | 0.00 | 0.00 | 0.00 | 53 | 1012.1 |
| 20260501230623 | 66 | 350 | 4.0 | 8.0 | 0.00 | 0.00 | 0.00 | 53 | 1012.1 |
| 20260501230555 | 66 | 347 | 4.0 | 6.0 | 0.00 | 0.00 | 0.00 | 53 | 1012.2 |
| 20260501230328 | 66 | 327 | 4.0 | 6.0 | 0.00 | 0.00 | 0.00 | 53 | 1012.2 |
| 20260501230219 | 67 | 336 | 4.0 | 6.0 | 0.00 | 0.00 | 0.00 | 52 | 1012.2 |
| 20260501230126 | 67 | 355 | 4.0 | 6.0 | 0.00 | 0.00 | 0.00 | 52 | 1012.2 |
| 20260501230035 | 67 | 360 | 4.0 | 8.0 | 0.00 | 0.00 | 0.00 | 52 | 1012.2 |
| 20260501225921 | 67 | 355 | 5.0 | 8.0 | 0.00 | 0.00 | 0.00 | 52 | 1012.2 |
| 20260501225809 | 67 | 337 | 4.0 | 8.0 | 0.00 | 0.00 | 0.00 | 53 | 1012.2 |
| 20260501225717 | 67 | 333 | 4.0 | 8.0 | 0.00 | 0.00 | 0.00 | 52 | 1012.1 |
| 20260501225648 | 67 | 342 | 4.0 | 8.0 | 0.00 | 0.00 | 0.00 | 53 | 1012.1 |
| 20260501225515 | 67 | 328 | 4.0 | 8.0 | 0.00 | 0.00 | 0.00 | 53 | 1012.2 |
| 20260501225444 | 67 | 342 | 4.0 | 8.0 | 0.00 | 0.00 | 0.00 | 53 | 1012.2 |
| 20260501225309 | 67 | 355 | 5.0 | 8.0 | 0.00 | 0.00 | 0.00 | 53 | 1012.2 |
| 20260501225238 | 67 | 333 | 4.0 | 8.0 | 0.00 | 0.00 | 0.00 | 53 | 1012.2 |
| 20260501225143 | 67 | 347 | 4.0 | 8.0 | 0.00 | 0.00 | 0.00 | 53 | 1012.2 |
| 20260501225117 | 67 | 360 | 4.0 | 8.0 | 0.00 | 0.00 | 0.00 | 52 | 1012.2 |
| 20260501224809 | 67 | 355 | 4.0 | 8.0 | 0.00 | 0.00 | 0.00 | 52 | 1012.4 |
| 20260501224716 | 67 | 326 | 4.0 | 8.0 | 0.00 | 0.00 | 0.00 | 52 | 1012.4 |
| 20260501224622 | 67 | 345 | 4.0 | 8.0 | 0.00 | 0.00 | 0.00 | 51 | 1012.4 |
| 20260501224510 | 67 | 316 | 4.0 | 8.0 | 0.00 | 0.00 | 0.00 | 51 | 1012.4 |
| 20260501224438 | 67 | 355 | 4.0 | 8.0 | 0.00 | 0.00 | 0.00 | 51 | 1012.5 |
| 20260501224308 | 67 | 315 | 3.0 | 5.0 | 0.00 | 0.00 | 0.00 | 51 | 1012.4 |
| 20260501224215 | 67 | 292 | 2.0 | 5.0 | 0.00 | 0.00 | 0.00 | 52 | 1012.4 |
| 20260501224123 | 67 | 304 | 2.0 | 5.0 | 0.00 | 0.00 | 0.00 | 52 | 1012.4 |
| 20260501224051 | 67 | 327 | 2.0 | 5.0 | 0.00 | 0.00 | 0.00 | 51 | 1012.4 |
| 20260501223815 | 67 | 22 | 2.0 | 5.0 | 0.00 | 0.00 | 0.00 | 51 | 1012.1 |
| 20260501223726 | 67 | 15 | 2.0 | 6.0 | 0.00 | 0.00 | 0.00 | 51 | 1012.1 |
| 20260501223633 | 67 | 24 | 2.0 | 6.0 | 0.00 | 0.00 | 0.00 | 51 | 1012.2 |
| 20260501223604 | 67 | 11 | 2.0 | 6.0 | 0.00 | 0.00 | 0.00 | 51 | 1012.1 |
| 20260501223316 | 67 | 355 | 3.0 | 8.0 | 0.00 | 0.00 | 0.00 | 51 | 1012.1 |
| 20260501223223 | 67 | 355 | 3.0 | 8.0 | 0.00 | 0.00 | 0.00 | 51 | 1012.1 |
| 20260501223114 | 68 | 355 | 3.0 | 8.0 | 0.00 | 0.00 | 0.00 | 51 | 1012.1 |
| 20260501223022 | 68 | 34 | 3.0 | 8.0 | 0.00 | 0.00 | 0.00 | 51 | 1012.1 |
| 20260501222910 | 68 | 355 | 3.0 | 8.0 | 0.00 | 0.00 | 0.00 | 51 | 1012.1 |
| 20260501222818 | 68 | 341 | 3.0 | 8.0 | 0.00 | 0.00 | 0.00 | 51 | 1012.1 |
| 20260501222725 | 68 | 5 | 4.0 | 8.0 | 0.00 | 0.00 | 0.00 | 51 | 1012.1 |
| 20260501222616 | 68 | 355 | 5.0 | 8.0 | 0.00 | 0.00 | 0.00 | 51 | 1012.0 |
| 20260501222523 | 68 | 5 | 5.0 | 8.0 | 0.00 | 0.00 | 0.00 | 52 | 1012.0 |
| 20260501222431 | 68 | 25 | 5.0 | 8.0 | 0.00 | 0.00 | 0.00 | 51 | 1012.0 |
| 20260501222318 | 68 | 16 | 5.0 | 8.0 | 0.00 | 0.00 | 0.00 | 51 | 1011.9 |
| 20260501222245 | 68 | 348 | 5.0 | 8.0 | 0.00 | 0.00 | 0.00 | 51 | 1011.9 |
| 20260501222132 | 68 | 5 | 4.0 | 8.0 | 0.00 | 0.00 | 0.00 | 51 | 1011.8 |
| 20260501222106 | 68 | 355 | 3.0 | 7.0 | 0.00 | 0.00 | 0.00 | 52 | 1011.8 |
| 20260501221837 | 68 | 355 | 3.0 | 6.0 | 0.00 | 0.00 | 0.00 | 50 | 1011.6 |
| 20260501221744 | 68 | 5 | 3.0 | 6.0 | 0.00 | 0.00 | 0.00 | 50 | 1011.6 |
| 20260501221609 | 68 | 35 | 4.0 | 6.0 | 0.00 | 0.00 | 0.00 | 50 | 1011.5 |
| 20260501221517 | 68 | 32 | 4.0 | 6.0 | 0.00 | 0.00 | 0.00 | 50 | 1011.5 |
| 20260501221424 | 68 | 14 | 3.0 | 7.0 | 0.00 | 0.00 | 0.00 | 50 | 1011.5 |
| 20260501221315 | 68 | 10 | 3.0 | 7.0 | 0.00 | 0.00 | 0.00 | 49 | 1011.5 |
| 20260501221221 | 68 | 19 | 3.0 | 7.0 | 0.00 | 0.00 | 0.00 | 50 | 1011.5 |
| 20260501221127 | 68 | 37 | 4.0 | 7.0 | 0.00 | 0.00 | 0.00 | 49 | 1011.4 |
| 20260501221036 | 68 | 30 | 4.0 | 7.0 | 0.00 | 0.00 | 0.00 | 48 | 1011.4 |
| 20260501220922 | 68 | 29 | 4.0 | 7.0 | 0.00 | 0.00 | 0.00 | 48 | 1011.4 |
| 20260501220810 | 68 | 78 | 4.0 | 7.0 | 0.00 | 0.00 | 0.00 | 48 | 1011.4 |
| 20260501220722 | 68 | 53 | 4.0 | 7.0 | 0.00 | 0.00 | 0.00 | 48 | 1011.4 |
| 20260501220630 | 69 | 49 | 4.0 | 7.0 | 0.00 | 0.00 | 0.00 | 49 | 1011.4 |
| 20260501220601 | 69 | 22 | 4.0 | 6.0 | 0.00 | 0.00 | 0.00 | 49 | 1011.4 |
| 20260501220314 | 69 | 19 | 4.0 | 6.0 | 0.00 | 0.00 | 0.00 | 48 | 1011.6 |
| 20260501220241 | 69 | 5 | 4.0 | 6.0 | 0.00 | 0.00 | 0.00 | 48 | 1011.6 |
| 20260501220111 | 69 | 47 | 4.0 | 8.0 | 0.00 | 0.00 | 0.00 | 48 | 1011.7 |
| 20260501220018 | 69 | 43 | 4.0 | 8.0 | 0.00 | 0.00 | 0.00 | 49 | 1011.7 |
| 20260501215945 | 69 | 24 | 3.0 | 8.0 | 0.00 | 0.00 | 0.00 | 48 | 1011.7 |
| 20260501215718 | 69 | 44 | 3.0 | 8.0 | 0.00 | 0.00 | 0.00 | 47 | 1011.8 |
| 20260501215625 | 69 | 348 | 3.0 | 8.0 | 0.00 | 0.00 | 0.00 | 47 | 1011.8 |
| 20260501215517 | 69 | 355 | 4.0 | 8.0 | 0.00 | 0.00 | 0.00 | 48 | 1011.7 |
| 20260501215424 | 69 | 15 | 4.0 | 8.0 | 0.00 | 0.00 | 0.00 | 48 | 1011.7 |
| 20260501215313 | 69 | 37 | 5.0 | 7.0 | 0.00 | 0.00 | 0.00 | 48 | 1011.9 |
| 20260501215240 | 69 | 32 | 5.0 | 7.0 | 0.00 | 0.00 | 0.00 | 49 | 1011.9 |
| 20260501215147 | 69 | 355 | 5.0 | 7.0 | 0.00 | 0.00 | 0.00 | 48 | 1011.7 |
| 20260501215117 | 69 | 21 | 5.0 | 8.0 | 0.00 | 0.00 | 0.00 | 49 | 1011.8 |
| 20260501214814 | 69 | 360 | 5.0 | 9.0 | 0.00 | 0.00 | 0.00 | 48 | 1011.8 |
| 20260501214721 | 69 | 346 | 4.0 | 10.0 | 0.00 | 0.00 | 0.00 | 48 | 1011.8 |
| 20260501214609 | 69 | 339 | 5.0 | 10.0 | 0.00 | 0.00 | 0.00 | 47 | 1011.7 |
| 20260501214517 | 69 | 343 | 5.0 | 10.0 | 0.00 | 0.00 | 0.00 | 47 | 1011.8 |
| 20260501214426 | 70 | 313 | 5.0 | 10.0 | 0.00 | 0.00 | 0.00 | 47 | 1011.8 |
| 20260501214318 | 70 | 355 | 4.0 | 10.0 | 0.00 | 0.00 | 0.00 | 47 | 1011.8 |
| 20260501214226 | 70 | 329 | 5.0 | 10.0 | 0.00 | 0.00 | 0.00 | 47 | 1011.8 |
| 20260501214114 | 70 | 333 | 6.0 | 10.0 | 0.00 | 0.00 | 0.00 | 47 | 1011.7 |
| 20260501214022 | 70 | 5 | 7.0 | 10.0 | 0.00 | 0.00 | 0.00 | 47 | 1011.7 |
| 20260501213909 | 70 | 355 | 7.0 | 10.0 | 0.00 | 0.00 | 0.00 | 47 | 1011.6 |
| 20260501213838 | 70 | 355 | 5.0 | 10.0 | 0.00 | 0.00 | 0.00 | 47 | 1011.7 |
| 20260501213748 | 70 | 337 | 4.0 | 9.0 | 0.00 | 0.00 | 0.00 | 47 | 1011.7 |
| 20260501213614 | 70 | 312 | 4.0 | 9.0 | 0.00 | 0.00 | 0.00 | 47 | 1011.6 |
| 20260501213545 | 70 | 304 | 5.0 | 9.0 | 0.00 | 0.00 | 0.00 | 47 | 1011.6 |
| 20260501213319 | 70 | 331 | 5.0 | 9.0 | 0.00 | 0.00 | 0.00 | 47 | 1011.7 |
| 20260501213210 | 70 | 325 | 4.0 | 9.0 | 0.00 | 0.00 | 0.00 | 47 | 1011.7 |
| 20260501213118 | 70 | 298 | 4.0 | 9.0 | 0.00 | 0.00 | 0.00 | 47 | 1011.7 |
| 20260501213026 | 70 | 35 | 5.0 | 9.0 | 0.00 | 0.00 | 0.00 | 46 | 1011.7 |
| 20260501212914 | 70 | 300 | 6.0 | 9.0 | 0.00 | 0.00 | 0.00 | 46 | 1011.6 |
| 20260501212821 | 70 | 346 | 5.0 | 10.0 | 0.00 | 0.00 | 0.00 | 46 | 1011.6 |
| 20260501212730 | 70 | 325 | 4.0 | 10.0 | 0.00 | 0.00 | 0.00 | 46 | 1011.8 |
| 20260501212621 | 70 | 329 | 4.0 | 10.0 | 0.00 | 0.00 | 0.00 | 47 | 1011.8 |
| 20260501212530 | 70 | 5 | 5.0 | 10.0 | 0.00 | 0.00 | 0.00 | 47 | 1011.9 |
| 20260501212417 | 70 | 16 | 5.0 | 10.0 | 0.00 | 0.00 | 0.00 | 47 | 1011.9 |
| 20260501212324 | 70 | 19 | 5.0 | 10.0 | 0.00 | 0.00 | 0.00 | 47 | 1011.9 |
| 20260501212212 | 70 | 355 | 5.0 | 10.0 | 0.00 | 0.00 | 0.00 | 46 | 1012.0 |
| 20260501212119 | 70 | 13 | 6.0 | 8.0 | 0.00 | 0.00 | 0.00 | 46 | 1012.0 |
| 20260501212053 | 70 | 44 | 6.0 | 8.0 | 0.00 | 0.00 | 0.00 | 46 | 1012.0 |
| 20260501211827 | 70 | 16 | 5.0 | 8.0 | 0.00 | 0.00 | 0.00 | 48 | 1012.0 |
| 20260501211713 | 70 | 348 | 4.0 | 8.0 | 0.00 | 0.00 | 0.00 | 47 | 1012.0 |
| 20260501211621 | 70 | 28 | 4.0 | 8.0 | 0.00 | 0.00 | 0.00 | 47 | 1012.0 |
| 20260501211513 | 70 | 329 | 4.0 | 8.0 | 0.00 | 0.00 | 0.00 | 47 | 1012.0 |
| 20260501211440 | 69 | 329 | 4.0 | 8.0 | 0.00 | 0.00 | 0.00 | 47 | 1012.1 |
| 20260501211327 | 69 | 311 | 4.0 | 8.0 | 0.00 | 0.00 | 0.00 | 48 | 1012.1 |
| 20260501211213 | 69 | 348 | 4.0 | 8.0 | 0.00 | 0.00 | 0.00 | 48 | 1012.1 |
| 20260501211120 | 69 | 355 | 3.0 | 8.0 | 0.00 | 0.00 | 0.00 | 48 | 1012.1 |
| 20260501211009 | 69 | 355 | 3.0 | 8.0 | 0.00 | 0.00 | 0.00 | 47 | 1012.2 |
| 20260501210921 | 69 | 329 | 4.0 | 8.0 | 0.00 | 0.00 | 0.00 | 46 | 1012.2 |
| 20260501210808 | 69 | 323 | 5.0 | 8.0 | 0.00 | 0.00 | 0.00 | 47 | 1012.2 |
| 20260501210716 | 69 | 318 | 4.0 | 8.0 | 0.00 | 0.00 | 0.00 | 47 | 1012.2 |
| 20260501210644 | 69 | 288 | 2.0 | 8.0 | 0.00 | 0.00 | 0.00 | 47 | 1012.2 |
| 20260501210555 | 69 | 320 | 1.0 | 9.0 | 0.00 | 0.00 | 0.00 | 47 | 1012.3 |
| 20260501210312 | 69 | 307 | 2.0 | 10.0 | 0.00 | 0.00 | 0.00 | 47 | 1012.4 |
| 20260501210221 | 69 | 302 | 3.0 | 10.0 | 0.00 | 0.00 | 0.00 | 47 | 1012.4 |
| 20260501210128 | 69 | 271 | 4.0 | 10.0 | 0.00 | 0.00 | 0.00 | 46 | 1012.3 |
| 20260501210015 | 69 | 279 | 4.0 | 10.0 | 0.00 | 0.00 | 0.00 | 47 | 1012.4 |
| 20260501205924 | 69 | 321 | 5.0 | 10.0 | 0.00 | 0.00 | 0.00 | 47 | 1012.4 |
| 20260501205811 | 69 | 331 | 4.0 | 10.0 | 0.00 | 0.00 | 0.00 | 48 | 1012.4 |
| 20260501205724 | 69 | 308 | 4.0 | 10.0 | 0.00 | 0.00 | 0.00 | 48 | 1012.4 |
| 20260501205610 | 69 | 286 | 4.0 | 10.0 | 0.00 | 0.00 | 0.00 | 48 | 1012.4 |
| 20260501205517 | 69 | 331 | 5.0 | 10.0 | 0.00 | 0.00 | 0.00 | 48 | 1012.4 |
| 20260501205425 | 69 | 314 | 4.0 | 9.0 | 0.00 | 0.00 | 0.00 | 48 | 1012.4 |
| 20260501205332 | 69 | 342 | 3.0 | 5.0 | 0.00 | 0.00 | 0.00 | 47 | 1012.4 |
| 20260501205220 | 69 | 13 | 2.0 | 8.0 | 0.00 | 0.00 | 0.00 | 49 | 1012.4 |
| 20260501205133 | 69 | 17 | 2.0 | 8.0 | 0.00 | 0.00 | 0.00 | 49 | 1012.6 |
| 20260501205042 | 69 | 36 | 2.0 | 9.0 | 0.00 | 0.00 | 0.00 | 49 | 1012.6 |
| 20260501204815 | 69 | 25 | 3.0 | 9.0 | 0.00 | 0.00 | 0.00 | 50 | 1012.7 |
| 20260501204723 | 69 | 355 | 3.0 | 9.0 | 0.00 | 0.00 | 0.00 | 49 | 1012.7 |
| 20260501204616 | 69 | 355 | 3.0 | 9.0 | 0.00 | 0.00 | 0.00 | 50 | 1012.7 |
| 20260501204523 | 69 | 329 | 4.0 | 9.0 | 0.00 | 0.00 | 0.00 | 50 | 1012.7 |
| 20260501204409 | 69 | 5 | 4.0 | 9.0 | 0.00 | 0.00 | 0.00 | 49 | 1012.7 |
| 20260501204318 | 69 | 17 | 4.0 | 9.0 | 0.00 | 0.00 | 0.00 | 48 | 1012.7 |
| 20260501204244 | 69 | 36 | 5.0 | 9.0 | 0.00 | 0.00 | 0.00 | 50 | 1012.7 |
| 20260501204110 | 69 | 32 | 7.0 | 9.0 | 0.00 | 0.00 | 0.00 | 51 | 1012.7 |
| 20260501204022 | 69 | 19 | 6.0 | 9.0 | 0.00 | 0.00 | 0.00 | 51 | 1012.7 |
| 20260501203931 | 68 | 360 | 5.0 | 9.0 | 0.00 | 0.00 | 0.00 | 51 | 1012.8 |
| 20260501203836 | 68 | 345 | 3.0 | 6.0 | 0.00 | 0.00 | 0.00 | 50 | 1012.9 |
| 20260501203721 | 68 | 5 | 3.0 | 6.0 | 0.00 | 0.00 | 0.00 | 49 | 1012.9 |
| 20260501203608 | 68 | 323 | 2.0 | 8.0 | 0.00 | 0.00 | 0.00 | 49 | 1012.9 |
| 20260501203542 | 68 | 355 | 3.0 | 8.0 | 0.00 | 0.00 | 0.00 | 49 | 1012.9 |
| 20260501203315 | 68 | 340 | 3.0 | 8.0 | 0.00 | 0.00 | 0.00 | 49 | 1013.0 |
| 20260501203223 | 68 | 329 | 4.0 | 8.0 | 0.00 | 0.00 | 0.00 | 49 | 1013.0 |
| 20260501203111 | 68 | 338 | 4.0 | 8.0 | 0.00 | 0.00 | 0.00 | 48 | 1013.0 |
| 20260501203019 | 68 | 355 | 4.0 | 8.0 | 0.00 | 0.00 | 0.00 | 48 | 1012.9 |
| 20260501202925 | 68 | 315 | 3.0 | 8.0 | 0.00 | 0.00 | 0.00 | 49 | 1012.9 |
| 20260501202817 | 68 | 313 | 4.0 | 8.0 | 0.00 | 0.00 | 0.00 | 49 | 1013.0 |
| 20260501202724 | 68 | 325 | 4.0 | 8.0 | 0.00 | 0.00 | 0.00 | 48 | 1013.0 |
| 20260501202612 | 68 | 355 | 4.0 | 8.0 | 0.00 | 0.00 | 0.00 | 48 | 1013.1 |
| 20260501202520 | 68 | 329 | 3.0 | 8.0 | 0.00 | 0.00 | 0.00 | 48 | 1013.1 |
| 20260501202408 | 68 | 355 | 3.0 | 8.0 | 0.00 | 0.00 | 0.00 | 48 | 1013.2 |
| 20260501202315 | 68 | 31 | 3.0 | 8.0 | 0.00 | 0.00 | 0.00 | 47 | 1013.3 |
| 20260501202227 | 68 | 331 | 2.0 | 8.0 | 0.00 | 0.00 | 0.00 | 47 | 1013.3 |
| 20260501202134 | 68 | 300 | 3.0 | 8.0 | 0.00 | 0.00 | 0.00 | 49 | 1013.2 |
| 20260501202104 | 68 | 5 | 3.0 | 8.0 | 0.00 | 0.00 | 0.00 | 47 | 1013.2 |
| 20260501201818 | 68 | 305 | 3.0 | 8.0 | 0.00 | 0.00 | 0.00 | 48 | 1013.3 |
| 20260501201709 | 68 | 306 | 2.0 | 6.0 | 0.00 | 0.00 | 0.00 | 49 | 1013.4 |
| 20260501201618 | 68 | 336 | 3.0 | 6.0 | 0.00 | 0.00 | 0.00 | 49 | 1013.5 |
| 20260501201544 | 68 | 360 | 4.0 | 6.0 | 0.00 | 0.00 | 0.00 | 48 | 1013.5 |
| 20260501201410 | 68 | 336 | 5.0 | 7.0 | 0.00 | 0.00 | 0.00 | 48 | 1013.4 |
| 20260501201318 | 68 | 17 | 5.0 | 6.0 | 0.00 | 0.00 | 0.00 | 49 | 1013.5 |
| 20260501201226 | 68 | 20 | 4.0 | 6.0 | 0.00 | 0.00 | 0.00 | 49 | 1013.5 |
| 20260501201134 | 68 | 355 | 4.0 | 6.0 | 0.00 | 0.00 | 0.00 | 49 | 1013.5 |
| 20260501201024 | 68 | 344 | 4.0 | 8.0 | 0.00 | 0.00 | 0.00 | 48 | 1013.5 |
| 20260501200933 | 68 | 342 | 3.0 | 8.0 | 0.00 | 0.00 | 0.00 | 48 | 1013.5 |
| 20260501200819 | 68 | 324 | 3.0 | 8.0 | 0.00 | 0.00 | 0.00 | 49 | 1013.4 |
| 20260501200726 | 68 | 13 | 2.0 | 8.0 | 0.00 | 0.00 | 0.00 | 48 | 1013.4 |
| 20260501200613 | 68 | 13 | 1.0 | 8.0 | 0.00 | 0.00 | 0.00 | 48 | 1013.4 |
| 20260501200548 | 68 | 5 | 1.0 | 8.0 | 0.00 | 0.00 | 0.00 | 48 | 1013.4 |
| 20260501200320 | 68 | 303 | 3.0 | 8.0 | 0.00 | 0.00 | 0.00 | 48 | 1013.5 |
| 20260501200208 | 68 | 348 | 4.0 | 8.0 | 0.00 | 0.00 | 0.00 | 49 | 1013.7 |
| 20260501200115 | 68 | 309 | 4.0 | 8.0 | 0.00 | 0.00 | 0.00 | 48 | 1013.6 |
| 20260501200022 | 68 | 16 | 3.0 | 8.0 | 0.00 | 0.00 | 0.00 | 48 | 1013.6 |
| 20260501195935 | 68 | 302 | 2.0 | 8.0 | 0.00 | 0.00 | 0.00 | 49 | 1013.6 |
| 20260501195820 | 68 | 316 | 1.0 | 8.0 | 0.00 | 0.00 | 0.00 | 49 | 1013.6 |
| 20260501195747 | 68 | 329 | 1.0 | 8.0 | 0.00 | 0.00 | 0.00 | 48 | 1013.7 |
| 20260501195614 | 68 | 5 | 3.0 | 8.0 | 0.00 | 0.00 | 0.00 | 49 | 1013.8 |
| 20260501195521 | 68 | 16 | 3.0 | 9.0 | 0.00 | 0.00 | 0.00 | 48 | 1013.8 |
| 20260501195410 | 68 | 40 | 3.0 | 9.0 | 0.00 | 0.00 | 0.00 | 48 | 1013.8 |
| 20260501195320 | 68 | 41 | 4.0 | 9.0 | 0.00 | 0.00 | 0.00 | 48 | 1013.8 |
| 20260501195209 | 68 | 355 | 5.0 | 9.0 | 0.00 | 0.00 | 0.00 | 49 | 1013.9 |
| 20260501195116 | 68 | 10 | 6.0 | 9.0 | 0.00 | 0.00 | 0.00 | 49 | 1013.8 |
| 20260501195046 | 68 | 5 | 6.0 | 9.0 | 0.00 | 0.00 | 0.00 | 50 | 1013.8 |
| 20260501194819 | 68 | 22 | 6.0 | 9.0 | 0.00 | 0.00 | 0.00 | 49 | 1013.8 |
| 20260501194709 | 68 | 348 | 5.0 | 9.0 | 0.00 | 0.00 | 0.00 | 48 | 1014.0 |
| 20260501194617 | 68 | 11 | 5.0 | 8.0 | 0.00 | 0.00 | 0.00 | 48 | 1014.0 |
| 20260501194523 | 68 | 360 | 5.0 | 8.0 | 0.00 | 0.00 | 0.00 | 47 | 1014.0 |